VCV3750 SVMI-OSDI

Flight info

Callsign VCV3750
Flight time 9h 39m
Altitude 32000
Route VADOR2 UBKET UN779 TOSOS UM414 KIKER M423 RAYAS/N0496F330 M576 NEYDU/M083F330 DCT 2750N/M083F350 DCT 3140N DCT 3230N DCT 34N024W/N0479F360 DCT NARTA/N0436F240 UN747 MINTA/N0473F360 DCT PIMUR/N0467F380 DCT AMOTA DCT KOSEL DCT RESTU DCT PIMAD/N0476F370 DCT SAKET/N0472F380 DCT LEBNU/N0467F390 DCT LORNO UA145 TRL UM601 RDS/N0428F230 M601 BALMA UR655 LEBOR LIMA1C
Aircraft A346/H-SDE2E3FGHIJ3J4J5M1RWXY/LB1D1

Departure

Time 2026-05-07 10:58
Airport Maiquetía Simón Bolívar International Airport (SVMI)

Arrival

Time 2026-05-07 20:37
Airport Damascus International Airport (OSDI)
Time Latitude Longitude Altitude Speed Heading
2026-05-07 10:23 10.60109 -67.00547 196 ft 0 kts 359°
2026-05-07 10:45 10.60094 -67.00547 197 ft 4 kts 358°
2026-05-07 10:46 10.60068 -67.00546 196 ft 4 kts 358°
2026-05-07 10:46 10.60041 -67.00545 195 ft 4 kts 358°
2026-05-07 10:46 10.60015 -67.00544 195 ft 4 kts 354°
2026-05-07 10:46 10.59996 -67.00539 195 ft 4 kts 322°
2026-05-07 10:47 10.59989 -67.00531 195 ft 4 kts 275°
2026-05-07 10:47 10.59993 -67.00507 196 ft 4 kts 257°
2026-05-07 10:47 10.59997 -67.00481 203 ft 3 kts 268°
2026-05-07 10:47 10.59997 -67.00472 203 ft 0 kts 270°
2026-05-07 10:51 10.59997 -67.00474 203 ft 1 kts 270°
2026-05-07 10:51 10.59997 -67.00495 197 ft 5 kts 270°
2026-05-07 10:52 10.59997 -67.00528 195 ft 4 kts 270°
2026-05-07 10:52 10.59997 -67.00560 196 ft 7 kts 270°
2026-05-07 10:52 10.59997 -67.00632 197 ft 11 kts 267°
2026-05-07 10:52 10.59992 -67.00712 198 ft 13 kts 267°
2026-05-07 10:53 10.59988 -67.00802 200 ft 12 kts 267°
2026-05-07 10:53 10.59985 -67.00889 201 ft 12 kts 268°
2026-05-07 10:53 10.59982 -67.00975 203 ft 12 kts 268°
2026-05-07 10:53 10.59979 -67.01058 204 ft 11 kts 268°
2026-05-07 10:54 10.59977 -67.01138 206 ft 11 kts 268°
2026-05-07 10:54 10.59977 -67.01211 207 ft 9 kts 291°
2026-05-07 10:54 10.60031 -67.01240 208 ft 10 kts 353°
2026-05-07 10:54 10.60102 -67.01248 207 ft 11 kts 357°
2026-05-07 10:55 10.60190 -67.01251 205 ft 14 kts 359°
2026-05-07 10:55 10.60210 -67.01251 205 ft 0 kts 359°
2026-05-07 10:55 10.60217 -67.01251 205 ft 2 kts
2026-05-07 10:55 10.60242 -67.01250 205 ft 9 kts
2026-05-07 10:56 10.60307 -67.01251 206 ft 9 kts 358°
2026-05-07 10:56 10.60361 -67.01249 207 ft 6 kts 27°
2026-05-07 10:56 10.60380 -67.01214 207 ft 0 kts 69°
2026-05-07 10:56 10.60381 -67.01189 207 ft 11 kts 88°
2026-05-07 10:57 10.60391 -67.00909 200 ft 73 kts 88°
2026-05-07 10:57 10.60423 -66.99842 188 ft 152 kts 89°
2026-05-07 10:57 10.60451 -66.99014 158 ft 187 kts 87°
2026-05-07 10:57 10.60525 -66.97594 491 ft 205 kts 88°
2026-05-07 10:58 10.60597 -66.96122 1132 ft 211 kts 87°
2026-05-07 10:58 10.60742 -66.94623 1843 ft 211 kts 82°
2026-05-07 10:58 10.61055 -66.93168 2421 ft 212 kts 74°
2026-05-07 10:58 10.61582 -66.91731 2776 ft 223 kts 63°
2026-05-07 10:59 10.62476 -66.90394 3114 ft 236 kts 47°
2026-05-07 10:59 10.63797 -66.89314 3316 ft 252 kts 29°
2026-05-07 10:59 10.65460 -66.88612 3571 ft 266 kts 16°
2026-05-07 10:59 10.67318 -66.88286 3951 ft 277 kts
2026-05-07 11:00 10.69280 -66.88346 4407 ft 287 kts 353°
2026-05-07 11:00 10.71229 -66.88757 4923 ft 292 kts 344°
2026-05-07 11:00 10.73213 -66.89153 5589 ft 290 kts 358°
2026-05-07 11:00 10.75255 -66.89192 6233 ft 291 kts
2026-05-07 11:01 10.77266 -66.89214 6776 ft 294 kts
2026-05-07 11:01 10.79320 -66.89300 7341 ft 296 kts 359°
2026-05-07 11:01 10.81388 -66.89434 7884 ft 299 kts 358°
2026-05-07 11:01 10.83469 -66.89585 8430 ft 301 kts 357°
2026-05-07 11:02 10.85562 -66.89730 8998 ft 302 kts 359°
2026-05-07 11:02 10.87673 -66.89828 9522 ft 305 kts
2026-05-07 11:02 10.89801 -66.89910 10034 ft 308 kts
2026-05-07 11:02 10.91958 -66.89996 10418 ft 315 kts
2026-05-07 11:03 10.94195 -66.90088 10635 ft 328 kts
2026-05-07 11:03 10.96517 -66.90181 10856 ft 340 kts
2026-05-07 11:03 10.98928 -66.90283 11076 ft 352 kts
2026-05-07 11:03 11.01415 -66.90389 11292 ft 364 kts
2026-05-07 11:04 11.03988 -66.90496 11510 ft 376 kts
2026-05-07 11:04 11.06637 -66.90613 11754 ft 386 kts
2026-05-07 11:04 11.09335 -66.90731 12213 ft 389 kts
2026-05-07 11:04 11.12043 -66.90854 12751 ft 390 kts
2026-05-07 11:05 11.14728 -66.90975 13278 ft 391 kts
2026-05-07 11:05 11.17454 -66.91091 13785 ft 393 kts
2026-05-07 11:05 11.20194 -66.91209 14216 ft 395 kts
2026-05-07 11:05 11.22939 -66.91322 14659 ft 396 kts
2026-05-07 11:06 11.25701 -66.91442 15115 ft 398 kts
2026-05-07 11:06 11.28471 -66.91562 15577 ft 399 kts
2026-05-07 11:06 11.31251 -66.91682 16018 ft 401 kts
2026-05-07 11:06 11.34042 -66.91804 16494 ft 402 kts
2026-05-07 11:07 11.36844 -66.91923 16939 ft 404 kts
2026-05-07 11:07 11.39660 -66.92045 17392 ft 406 kts
2026-05-07 11:07 11.42488 -66.92132 17856 ft 407 kts
2026-05-07 11:07 11.45317 -66.92072 18288 ft 408 kts
2026-05-07 11:08 11.48150 -66.91870 18691 ft 409 kts
2026-05-07 11:08 11.50997 -66.91639 19043 ft 412 kts
2026-05-07 11:08 11.53860 -66.91405 19393 ft 414 kts
2026-05-07 11:08 11.56745 -66.91166 19711 ft 417 kts
2026-05-07 11:09 11.59648 -66.90927 20063 ft 419 kts
2026-05-07 11:09 11.62562 -66.90685 20405 ft 422 kts
2026-05-07 11:09 11.65477 -66.90442 20742 ft 421 kts
2026-05-07 11:09 11.68427 -66.90202 20863 ft 429 kts
2026-05-07 11:10 11.71406 -66.89961 21185 ft 430 kts
2026-05-07 11:10 11.74393 -66.89711 21569 ft 431 kts
2026-05-07 11:10 11.77397 -66.89464 21804 ft 435 kts
2026-05-07 11:10 11.80421 -66.89213 22091 ft 438 kts
2026-05-07 11:11 11.83472 -66.88964 22326 ft 442 kts
2026-05-07 11:11 11.86547 -66.88712 22598 ft 445 kts
2026-05-07 11:11 11.89619 -66.88461 22853 ft 447 kts
2026-05-07 11:11 11.92741 -66.88205 23124 ft 450 kts
2026-05-07 11:12 11.95851 -66.87949 23345 ft 453 kts
2026-05-07 11:12 11.99006 -66.87689 23597 ft 455 kts
2026-05-07 11:12 12.02186 -66.87427 23791 ft 458 kts
2026-05-07 11:12 12.05346 -66.87166 24008 ft 460 kts
2026-05-07 11:13 12.08525 -66.86902 24227 ft 462 kts
2026-05-07 11:13 12.11750 -66.86635 24456 ft 463 kts
2026-05-07 11:13 12.14980 -66.86365 24682 ft 465 kts
2026-05-07 11:13 12.19811 -66.85968 25007 ft 468 kts
2026-05-07 11:14 12.28757 -66.85221 25589 ft 473 kts
2026-05-07 11:14 12.42274 -66.80098 26447 ft 488 kts 26°
2026-05-07 11:14 12.52815 -66.74146 27189 ft 493 kts 26°
2026-05-07 11:14 12.58827 -66.70792 27570 ft 496 kts 25°
2026-05-07 11:15 12.64887 -66.67419 27938 ft 500 kts 26°
2026-05-07 11:15 12.76905 -66.60728 28914 ft 501 kts 26°
2026-05-07 11:15 12.86818 -66.55199 30104 ft 493 kts 25°
2026-05-07 11:15 12.92858 -66.51836 30283 ft 499 kts 25°
2026-05-07 11:16 12.99031 -66.48396 30442 ft 506 kts 25°
2026-05-07 11:16 13.05997 -66.44510 30613 ft 513 kts 26°
2026-05-07 11:16 13.14774 -66.39607 31131 ft 512 kts 26°
2026-05-07 11:16 13.20978 -66.36136 31539 ft 510 kts 25°
2026-05-07 11:17 13.27267 -66.32618 31904 ft 511 kts 25°
2026-05-07 11:17 13.32458 -66.29713 32026 ft 510 kts 25°
2026-05-07 11:17 13.38689 -66.26225 32034 ft 510 kts 25°
2026-05-07 11:18 13.44944 -66.22719 32039 ft 513 kts 25°
2026-05-07 11:18 13.51208 -66.19208 32042 ft 515 kts 25°
2026-05-07 11:19 13.57491 -66.15683 32038 ft 515 kts 25°
2026-05-07 11:19 13.63782 -66.12152 32044 ft 515 kts 25°
2026-05-07 11:20 13.70071 -66.08620 32060 ft 514 kts 26°
2026-05-07 11:20 13.76295 -66.05123 32049 ft 509 kts 26°
2026-05-07 11:21 13.82507 -66.01629 32046 ft 508 kts 25°
2026-05-07 11:21 13.88728 -65.98128 32048 ft 508 kts 26°
2026-05-07 11:22 13.94894 -65.94657 32052 ft 508 kts 26°
2026-05-07 11:22 14.01122 -65.91147 32061 ft 512 kts 25°
2026-05-07 11:23 14.07349 -65.87636 32056 ft 508 kts 26°
2026-05-07 11:23 14.13536 -65.84144 32053 ft 508 kts 26°
2026-05-07 11:24 14.19735 -65.80642 32053 ft 508 kts 26°
2026-05-07 11:24 14.25920 -65.77149 32053 ft 508 kts 26°
2026-05-07 11:25 14.32154 -65.73633 32066 ft 508 kts 26°
2026-05-07 11:25 14.38316 -65.70153 32062 ft 503 kts 26°
2026-05-07 11:26 14.44448 -65.66685 32059 ft 502 kts 26°
2026-05-07 11:26 14.50545 -65.63233 32060 ft 502 kts 26°
2026-05-07 11:27 14.56676 -65.59761 32061 ft 504 kts 26°
2026-05-07 11:27 14.62841 -65.56269 32064 ft 506 kts 26°
2026-05-07 11:28 14.68989 -65.52780 32062 ft 502 kts 26°
2026-05-07 11:28 14.75102 -65.49306 32062 ft 502 kts 26°
2026-05-07 11:29 14.81233 -65.45819 32061 ft 502 kts 26°
2026-05-07 11:29 14.87347 -65.42340 32066 ft 502 kts 26°
2026-05-07 11:30 14.93472 -65.38850 32074 ft 502 kts 26°
2026-05-07 11:30 14.99570 -65.35380 32066 ft 499 kts 25°
2026-05-07 11:31 15.05988 -65.32842 32062 ft 493 kts 11°
2026-05-07 11:31 15.12739 -65.31975 32064 ft 488 kts 358°
2026-05-07 11:32 15.19434 -65.32760 32068 ft 484 kts 345°
2026-05-07 11:32 15.22681 -65.33711 32074 ft 483 kts 341°
2026-05-07 11:33 15.29098 -65.35816 32072 ft 482 kts 341°
2026-05-07 11:33 15.35448 -65.37917 32068 ft 482 kts 341°
2026-05-07 11:34 15.41841 -65.40022 32063 ft 482 kts 341°
2026-05-07 11:34 15.48231 -65.42123 32074 ft 482 kts 341°
2026-05-07 11:35 15.54615 -65.44223 32071 ft 482 kts 341°
2026-05-07 11:35 15.61101 -65.45931 32075 ft 484 kts 352°
2026-05-07 11:36 15.67845 -65.45536 32070 ft 489 kts 11°
2026-05-07 11:36 15.74180 -65.42891 32074 ft 496 kts 29°
2026-05-07 11:37 15.79552 -65.38315 32075 ft 501 kts 40°
2026-05-07 11:37 15.84580 -65.33300 32081 ft 501 kts 41°
2026-05-07 11:38 15.89602 -65.28281 32086 ft 501 kts 41°
2026-05-07 11:38 15.94641 -65.23263 32085 ft 500 kts 41°
2026-05-07 11:39 15.99644 -65.18285 32074 ft 500 kts 41°
2026-05-07 11:39 16.04683 -65.13268 32083 ft 500 kts 41°
2026-05-07 11:40 16.09708 -65.08262 32078 ft 500 kts 41°
2026-05-07 11:40 16.14744 -65.03246 32082 ft 500 kts 41°
2026-05-07 11:41 16.19774 -64.98228 32087 ft 499 kts 41°
2026-05-07 11:41 16.24766 -64.93248 32074 ft 500 kts 41°
2026-05-07 11:42 16.29807 -64.88217 32087 ft 500 kts 41°
2026-05-07 11:42 16.34826 -64.83202 32087 ft 500 kts 41°
2026-05-07 11:43 16.39847 -64.78178 32072 ft 500 kts 41°
2026-05-07 11:43 16.44872 -64.73146 32084 ft 500 kts 41°
2026-05-07 11:44 16.49031 -64.68979 32070 ft 500 kts 41°
2026-05-07 11:44 16.54049 -64.63946 32087 ft 500 kts 41°
2026-05-07 11:45 16.59065 -64.58912 32092 ft 500 kts 41°
2026-05-07 11:45 16.64075 -64.53879 32076 ft 500 kts 41°
2026-05-07 11:46 16.69088 -64.48840 32096 ft 500 kts 41°
2026-05-07 11:46 16.74094 -64.43803 32094 ft 500 kts 41°
2026-05-07 11:47 16.79070 -64.38793 32081 ft 498 kts 41°
2026-05-07 11:47 16.84074 -64.33754 32084 ft 499 kts 41°
2026-05-07 11:48 16.89085 -64.28703 32085 ft 499 kts 41°
2026-05-07 11:48 16.94062 -64.23679 32085 ft 499 kts 41°
2026-05-07 11:49 16.99067 -64.18624 32085 ft 499 kts 41°
2026-05-07 11:49 17.04066 -64.13569 32086 ft 499 kts 41°
2026-05-07 11:50 17.09065 -64.08511 32084 ft 499 kts 41°
2026-05-07 11:50 17.14049 -64.03465 32086 ft 499 kts 41°
2026-05-07 11:51 17.19031 -63.98420 32089 ft 500 kts 41°
2026-05-07 11:51 17.24021 -63.93362 32089 ft 500 kts 41°
2026-05-07 11:52 17.29017 -63.88290 32099 ft 500 kts 41°
2026-05-07 11:52 17.33995 -63.83230 32092 ft 499 kts 41°
2026-05-07 11:53 17.38979 -63.78161 32090 ft 499 kts 41°
2026-05-07 11:53 17.43973 -63.73077 32094 ft 499 kts 41°
2026-05-07 11:54 17.48971 -63.67984 32090 ft 500 kts 41°
2026-05-07 11:54 17.53959 -63.62903 32091 ft 500 kts 41°
2026-05-07 11:55 17.58940 -63.57826 32099 ft 500 kts 41°
2026-05-07 11:55 17.63929 -63.52737 32095 ft 500 kts 41°
2026-05-07 11:56 17.68922 -63.47637 32094 ft 500 kts 41°
2026-05-07 11:56 17.73901 -63.42547 32094 ft 500 kts 41°
2026-05-07 11:57 17.78896 -63.37437 32090 ft 501 kts 41°
2026-05-07 11:57 17.83891 -63.32319 32106 ft 501 kts 41°
2026-05-07 11:58 17.88870 -63.27214 32106 ft 501 kts 41°
2026-05-07 11:58 17.93869 -63.22085 32111 ft 500 kts 41°
2026-05-07 11:59 17.98818 -63.17001 32116 ft 501 kts 41°
2026-05-07 11:59 18.03830 -63.11849 32116 ft 501 kts 41°
2026-05-07 12:00 18.08813 -63.06741 32112 ft 503 kts 41°
2026-05-07 12:00 18.13803 -63.01616 32092 ft 501 kts 41°
2026-05-07 12:01 18.18810 -62.96470 32090 ft 501 kts 41°
2026-05-07 12:01 18.23796 -62.91340 32090 ft 501 kts 41°
2026-05-07 12:02 18.28779 -62.86206 32110 ft 501 kts 41°
2026-05-07 12:02 18.33772 -62.81060 32106 ft 502 kts 41°
2026-05-07 12:03 18.38785 -62.75896 32112 ft 503 kts 41°
2026-05-07 12:03 18.43783 -62.70743 32113 ft 502 kts 41°
2026-05-07 12:04 18.48776 -62.65591 32112 ft 502 kts 41°
2026-05-07 12:04 18.53770 -62.60431 32111 ft 502 kts 41°
2026-05-07 12:05 18.58746 -62.55285 32115 ft 502 kts 41°
2026-05-07 12:05 18.63726 -62.50131 32119 ft 503 kts 41°
2026-05-07 12:06 18.68743 -62.44931 32118 ft 504 kts 41°
2026-05-07 12:06 18.73737 -62.39752 32116 ft 504 kts 41°
2026-05-07 12:07 18.78743 -62.34555 32116 ft 504 kts 41°
2026-05-07 12:07 18.83717 -62.29387 32116 ft 504 kts 41°
2026-05-07 12:08 18.88721 -62.24180 32116 ft 504 kts 41°
2026-05-07 12:08 18.93727 -62.18971 32117 ft 505 kts 42°
2026-05-07 12:09 18.98520 -62.13525 32115 ft 507 kts 47°
2026-05-07 12:09 19.02907 -62.07672 32119 ft 508 kts 49°
2026-05-07 12:10 19.07253 -62.01748 32118 ft 508 kts 50°
2026-05-07 12:10 19.11596 -61.95826 32121 ft 508 kts 50°
2026-05-07 12:11 19.15909 -61.89948 32121 ft 509 kts 50°
2026-05-07 12:11 19.20264 -61.84009 32124 ft 510 kts 50°
2026-05-07 12:12 19.24634 -61.78042 32123 ft 510 kts 50°
2026-05-07 12:12 19.28960 -61.72131 32124 ft 510 kts 50°
2026-05-07 12:13 19.33312 -61.66179 32124 ft 510 kts 50°
2026-05-07 12:13 19.37656 -61.60233 32128 ft 510 kts 50°
2026-05-07 12:14 19.42001 -61.54279 32125 ft 510 kts 50°
2026-05-07 12:14 19.46343 -61.48325 32124 ft 510 kts 50°
2026-05-07 12:15 19.50686 -61.42364 32125 ft 510 kts 50°
2026-05-07 12:15 19.55024 -61.36403 32128 ft 510 kts 50°
2026-05-07 12:16 19.59363 -61.30437 32128 ft 511 kts 50°
2026-05-07 12:16 19.63706 -61.24457 32135 ft 511 kts 50°
2026-05-07 12:17 19.68041 -61.18479 32132 ft 511 kts 50°
2026-05-07 12:17 19.72376 -61.12499 32130 ft 511 kts 50°
2026-05-07 12:18 19.76720 -61.06499 32129 ft 511 kts 50°
2026-05-07 12:18 19.81031 -61.00541 32128 ft 512 kts 50°
2026-05-07 12:19 19.85372 -60.94534 32130 ft 512 kts 50°
2026-05-07 12:19 19.89737 -60.88485 32135 ft 512 kts 50°
2026-05-07 12:20 19.94065 -60.82484 32130 ft 512 kts 50°
2026-05-07 12:20 19.98399 -60.76468 32132 ft 512 kts 50°
2026-05-07 12:21 20.02738 -60.70442 32131 ft 513 kts 50°
2026-05-07 12:21 20.07061 -60.64429 32136 ft 514 kts 50°
2026-05-07 12:22 20.11425 -60.58351 32141 ft 513 kts 50°
2026-05-07 12:22 20.15751 -60.52320 32140 ft 513 kts 50°
2026-05-07 12:23 20.20083 -60.46277 32135 ft 513 kts 50°
2026-05-07 12:23 20.24422 -60.40220 32138 ft 515 kts 50°
2026-05-07 12:24 20.28767 -60.34144 32136 ft 515 kts 51°
2026-05-07 12:24 20.33116 -60.28057 32137 ft 515 kts 51°
2026-05-07 12:25 20.37446 -60.21989 32142 ft 514 kts 51°
2026-05-07 12:25 20.41766 -60.15932 32138 ft 515 kts 51°
2026-05-07 12:26 20.46101 -60.09848 32138 ft 516 kts 51°
2026-05-07 12:26 20.50442 -60.03745 32139 ft 516 kts 51°
2026-05-07 12:27 20.54788 -59.97630 32146 ft 516 kts 51°
2026-05-07 12:27 20.59133 -59.91511 32142 ft 516 kts 51°
2026-05-07 12:28 20.62756 -59.86403 32143 ft 517 kts 51°
2026-05-07 12:28 20.67084 -59.80298 32139 ft 518 kts 51°
2026-05-07 12:29 20.71437 -59.74147 32146 ft 518 kts 51°
2026-05-07 12:29 20.75790 -59.67990 32144 ft 518 kts 51°
2026-05-07 12:30 20.80133 -59.61841 32146 ft 518 kts 51°
2026-05-07 12:30 20.84480 -59.55681 32143 ft 519 kts 51°
2026-05-07 12:31 20.88815 -59.49531 32146 ft 519 kts 51°
2026-05-07 12:31 20.93164 -59.43353 32144 ft 519 kts 51°
2026-05-07 12:32 20.97505 -59.37181 32140 ft 519 kts 51°
2026-05-07 12:32 21.01857 -59.30986 32148 ft 519 kts 51°
2026-05-07 12:33 21.08372 -59.21701 32145 ft 521 kts 51°
2026-05-07 12:33 21.12731 -59.15477 32143 ft 521 kts 51°
2026-05-07 12:34 21.17096 -59.09240 32145 ft 521 kts 51°
2026-05-07 12:34 21.21415 -59.03061 32147 ft 521 kts 51°
2026-05-07 12:35 21.25770 -58.96827 32152 ft 522 kts 51°
2026-05-07 12:35 21.30123 -58.90584 32150 ft 522 kts 51°
2026-05-07 12:36 21.34470 -58.84344 32149 ft 522 kts 51°
2026-05-07 12:36 21.38819 -58.78095 32148 ft 522 kts 51°
2026-05-07 12:37 21.43175 -58.71828 32152 ft 522 kts 52°
2026-05-07 12:37 21.47516 -58.65576 32152 ft 522 kts 52°
2026-05-07 12:38 21.51856 -58.59317 32152 ft 522 kts 52°
2026-05-07 12:38 21.56206 -58.53039 32152 ft 522 kts 52°
2026-05-07 12:39 21.60537 -58.46780 32146 ft 522 kts 52°
2026-05-07 12:39 21.64875 -58.40507 32149 ft 524 kts 52°
2026-05-07 12:40 21.69218 -58.34214 32154 ft 524 kts 52°
2026-05-07 12:40 21.73569 -58.27904 32153 ft 524 kts 52°
2026-05-07 12:41 21.77905 -58.21610 32152 ft 524 kts 52°
2026-05-07 12:41 21.82251 -58.15298 32153 ft 525 kts 52°
2026-05-07 12:42 21.86600 -58.08968 32154 ft 525 kts 52°
2026-05-07 12:42 21.90960 -58.02612 32142 ft 525 kts 52°
2026-05-07 12:43 21.95292 -57.96294 32147 ft 525 kts 52°
2026-05-07 12:43 21.99633 -57.89958 32156 ft 526 kts 52°
2026-05-07 12:44 22.03958 -57.83636 32160 ft 526 kts 52°
2026-05-07 12:44 22.08299 -57.77280 32145 ft 526 kts 52°
2026-05-07 12:45 22.12642 -57.70914 32162 ft 526 kts 52°
2026-05-07 12:45 22.16983 -57.64545 32144 ft 526 kts 52°
2026-05-07 12:46 22.21317 -57.58183 32162 ft 527 kts 52°
2026-05-07 12:46 22.25660 -57.51794 32163 ft 527 kts 52°
2026-05-07 12:47 22.29996 -57.45410 32150 ft 527 kts 52°
2026-05-07 12:47 22.34331 -57.39017 32155 ft 526 kts 52°
2026-05-07 12:48 22.38666 -57.32622 32154 ft 527 kts 53°
2026-05-07 12:48 22.43000 -57.26218 32151 ft 527 kts 53°
2026-05-07 12:49 22.47335 -57.19803 32152 ft 527 kts 53°
2026-05-07 12:49 22.51656 -57.13402 32169 ft 527 kts 52°
2026-05-07 12:50 22.55981 -57.06993 32152 ft 528 kts 53°
2026-05-07 12:50 22.60321 -57.00551 32157 ft 528 kts 53°
2026-05-07 12:51 22.64652 -56.94112 32159 ft 528 kts 53°
2026-05-07 12:51 22.68970 -56.87685 32160 ft 528 kts 53°
2026-05-07 12:52 22.73286 -56.81255 32164 ft 529 kts 53°
2026-05-07 12:52 22.77619 -56.74789 32161 ft 529 kts 53°
2026-05-07 12:53 22.81922 -56.68360 32161 ft 529 kts 53°
2026-05-07 12:53 22.86236 -56.61907 32162 ft 529 kts 53°
2026-05-07 12:54 22.90561 -56.55429 32154 ft 529 kts 53°
2026-05-07 12:54 22.94878 -56.48956 32163 ft 529 kts 53°
2026-05-07 12:55 22.99198 -56.42469 32164 ft 530 kts 53°
2026-05-07 12:55 23.03514 -56.35979 32162 ft 530 kts 53°
2026-05-07 12:56 23.07825 -56.29490 32153 ft 530 kts 53°
2026-05-07 12:56 23.12144 -56.22984 32169 ft 531 kts 53°
2026-05-07 12:57 23.16470 -56.16457 32166 ft 531 kts 53°
2026-05-07 12:57 23.20783 -56.09944 32163 ft 531 kts 53°
2026-05-07 12:58 23.25097 -56.03420 32165 ft 530 kts 53°
2026-05-07 12:58 23.29382 -55.96930 32165 ft 530 kts 53°
2026-05-07 12:59 23.33689 -55.90396 32173 ft 530 kts 53°
2026-05-07 12:59 23.37995 -55.83857 32167 ft 530 kts 53°
2026-05-07 13:00 23.42301 -55.77311 32157 ft 531 kts 54°
2026-05-07 13:00 23.46610 -55.70753 32164 ft 531 kts 54°
2026-05-07 13:01 23.50904 -55.64206 32166 ft 531 kts 54°
2026-05-07 13:01 23.55180 -55.57677 32165 ft 531 kts 54°
2026-05-07 13:02 23.59477 -55.51108 32160 ft 531 kts 54°
2026-05-07 13:02 23.63794 -55.44502 32162 ft 533 kts 54°
2026-05-07 13:03 23.68098 -55.37907 32164 ft 533 kts 54°
2026-05-07 13:03 23.72371 -55.31351 32170 ft 532 kts 54°
2026-05-07 13:04 23.76653 -55.24771 32154 ft 533 kts 54°
2026-05-07 13:04 23.80961 -55.18143 32162 ft 535 kts 54°
2026-05-07 13:05 23.85263 -55.11515 32164 ft 535 kts 54°
2026-05-07 13:05 23.89570 -55.04870 32178 ft 534 kts 54°
2026-05-07 13:06 23.93878 -54.98218 32165 ft 534 kts 54°
2026-05-07 13:06 23.98155 -54.91601 32165 ft 536 kts 54°
2026-05-07 13:07 24.02478 -54.84906 32165 ft 536 kts 54°
2026-05-07 13:07 24.06780 -54.78235 32182 ft 536 kts 54°
2026-05-07 13:08 24.11078 -54.71563 32170 ft 536 kts 54°
2026-05-07 13:08 24.15353 -54.64916 32169 ft 537 kts 54°
2026-05-07 13:09 24.19659 -54.58209 32168 ft 537 kts 54°
2026-05-07 13:09 24.23952 -54.51516 32164 ft 537 kts 54°
2026-05-07 13:10 24.28257 -54.44797 32165 ft 538 kts 55°
2026-05-07 13:10 24.32568 -54.38056 32165 ft 538 kts 55°
2026-05-07 13:11 24.36868 -54.31323 32167 ft 538 kts 55°
2026-05-07 13:11 24.41143 -54.24620 32162 ft 538 kts 55°
2026-05-07 13:12 24.45448 -54.17864 32171 ft 539 kts 55°
2026-05-07 13:12 24.49733 -54.11126 32167 ft 539 kts 55°
2026-05-07 13:13 24.54035 -54.04350 32165 ft 539 kts 55°
2026-05-07 13:13 24.58314 -53.97601 32156 ft 540 kts 55°
2026-05-07 13:14 24.61909 -53.91926 32178 ft 540 kts 55°
2026-05-07 13:14 24.66208 -53.85129 32169 ft 540 kts 55°
2026-05-07 13:15 24.70494 -53.78344 32168 ft 540 kts 55°
2026-05-07 13:15 24.74784 -53.71548 32161 ft 541 kts 56°
2026-05-07 13:16 24.79075 -53.64738 32179 ft 542 kts 56°
2026-05-07 13:16 24.83372 -53.57907 32170 ft 541 kts 56°
2026-05-07 13:17 24.87657 -53.51085 32168 ft 541 kts 56°
2026-05-07 13:17 24.91940 -53.44259 32170 ft 541 kts 56°
2026-05-07 13:18 24.96217 -53.37432 32184 ft 541 kts 56°
2026-05-07 13:18 25.00489 -53.30602 32178 ft 540 kts 56°
2026-05-07 13:19 25.04747 -53.23790 32162 ft 540 kts 56°
2026-05-07 13:19 25.09012 -53.16956 32172 ft 542 kts 56°
2026-05-07 13:20 25.13283 -53.10097 32172 ft 542 kts 56°
2026-05-07 13:20 25.17549 -53.03235 32176 ft 541 kts 56°
2026-05-07 13:21 25.21813 -52.96371 32168 ft 543 kts 56°
2026-05-07 13:21 25.26080 -52.89489 32167 ft 543 kts 56°
2026-05-07 13:22 25.30347 -52.82598 32172 ft 543 kts 56°
2026-05-07 13:22 25.34616 -52.75696 32156 ft 543 kts 56°
2026-05-07 13:23 25.38884 -52.68787 32167 ft 544 kts 56°
2026-05-07 13:23 25.43156 -52.61858 32169 ft 544 kts 56°
2026-05-07 13:24 25.47426 -52.54922 32193 ft 544 kts 56°
2026-05-07 13:24 25.51675 -52.48013 32170 ft 545 kts 56°
2026-05-07 13:25 25.55943 -52.41060 32173 ft 545 kts 57°
2026-05-07 13:25 25.60208 -52.34103 32170 ft 545 kts 57°
2026-05-07 13:26 25.64482 -52.27120 32176 ft 545 kts 57°
2026-05-07 13:26 25.68737 -52.20159 32173 ft 545 kts 57°
2026-05-07 13:27 25.72989 -52.13191 32173 ft 545 kts 57°
2026-05-07 13:27 25.77230 -52.06233 32173 ft 545 kts 57°
2026-05-07 13:28 25.81498 -51.99220 32178 ft 545 kts 57°
2026-05-07 13:28 25.85741 -51.92234 32175 ft 546 kts 57°
2026-05-07 13:29 25.89970 -51.85263 32172 ft 546 kts 57°
2026-05-07 13:29 25.94216 -51.78253 32167 ft 545 kts 57°
2026-05-07 13:30 25.98454 -51.71245 32180 ft 546 kts 57°
2026-05-07 13:30 26.02669 -51.64265 32175 ft 546 kts 57°
2026-05-07 13:31 26.06919 -51.57217 32158 ft 546 kts 57°
2026-05-07 13:31 26.11149 -51.50193 32166 ft 545 kts 57°
2026-05-07 13:32 26.15378 -51.43157 32178 ft 546 kts 57°
2026-05-07 13:32 26.19584 -51.36148 32178 ft 546 kts 57°
2026-05-07 13:33 26.23817 -51.29084 32170 ft 546 kts 57°
2026-05-07 13:33 26.28028 -51.22046 32192 ft 546 kts 57°
2026-05-07 13:34 26.34337 -51.11482 32178 ft 546 kts 57°
2026-05-07 13:35 26.38549 -51.04415 32178 ft 546 kts 57°
2026-05-07 13:35 26.42764 -50.97333 32174 ft 547 kts 57°
2026-05-07 13:36 26.46972 -50.90252 32184 ft 547 kts 57°
2026-05-07 13:36 26.51187 -50.83147 32173 ft 547 kts 57°
2026-05-07 13:37 26.55389 -50.76053 32173 ft 547 kts 58°
2026-05-07 13:37 26.59592 -50.68947 32188 ft 547 kts 58°
2026-05-07 13:38 26.63773 -50.61866 32173 ft 547 kts 58°
2026-05-07 13:38 26.67962 -50.54761 32174 ft 547 kts 58°
2026-05-07 13:39 26.72153 -50.47639 32173 ft 547 kts 58°
2026-05-07 13:39 26.76334 -50.40525 32170 ft 547 kts 58°
2026-05-07 13:40 26.80520 -50.33389 32174 ft 547 kts 58°
2026-05-07 13:40 26.84704 -50.26247 32175 ft 547 kts 58°
2026-05-07 13:41 26.88867 -50.19127 32163 ft 547 kts 58°
2026-05-07 13:41 26.93024 -50.12007 32179 ft 548 kts 58°
2026-05-07 13:42 26.97199 -50.04841 32183 ft 548 kts 58°
2026-05-07 13:42 27.01139 -49.97539 32181 ft 546 kts 64°
2026-05-07 13:43 27.04618 -49.89937 32183 ft 548 kts 65°
2026-05-07 13:43 27.08043 -49.82298 32178 ft 548 kts 65°
2026-05-07 13:44 27.11482 -49.74635 32171 ft 548 kts 65°
2026-05-07 13:44 27.14928 -49.66972 32177 ft 550 kts 65°
2026-05-07 13:45 27.18374 -49.59286 32184 ft 550 kts 65°
2026-05-07 13:45 27.21817 -49.51604 32170 ft 550 kts 65°
2026-05-07 13:46 27.25262 -49.43908 32181 ft 551 kts 65°
2026-05-07 13:46 27.28709 -49.36188 32184 ft 551 kts 65°
2026-05-07 13:47 27.32139 -49.28489 32184 ft 551 kts 65°
2026-05-07 13:47 27.35579 -49.20757 32187 ft 552 kts 65°
2026-05-07 13:48 27.39016 -49.13019 32187 ft 552 kts 65°
2026-05-07 13:48 27.42440 -49.05293 32189 ft 552 kts 65°
2026-05-07 13:49 27.45848 -48.97588 32186 ft 552 kts 65°
2026-05-07 13:49 27.49274 -48.89830 32185 ft 552 kts 66°
2026-05-07 13:50 27.52704 -48.82050 32186 ft 552 kts 66°
2026-05-07 13:50 27.56121 -48.74279 32193 ft 553 kts 66°
2026-05-07 13:51 27.59538 -48.66499 32196 ft 553 kts 66°
2026-05-07 13:51 27.62951 -48.58714 32189 ft 553 kts 66°
2026-05-07 13:52 27.66359 -48.50921 32192 ft 553 kts 66°
2026-05-07 13:52 27.69742 -48.43172 32186 ft 553 kts 66°
2026-05-07 13:53 27.73160 -48.35330 32194 ft 552 kts 66°
2026-05-07 13:53 27.76547 -48.27543 32196 ft 552 kts 66°
2026-05-07 13:54 27.79912 -48.19790 32199 ft 552 kts 66°
2026-05-07 13:54 27.83317 -48.11930 32200 ft 552 kts 66°
2026-05-07 13:55 27.86670 -48.04179 32199 ft 552 kts 66°
2026-05-07 13:55 27.90060 -47.96323 32193 ft 551 kts 66°
2026-05-07 13:56 27.93404 -47.88560 32200 ft 552 kts 66°
2026-05-07 13:56 27.96778 -47.80713 32198 ft 552 kts 66°
2026-05-07 13:57 28.00136 -47.72889 32197 ft 551 kts 66°
2026-05-07 13:57 28.02917 -47.66397 32213 ft 551 kts 66°
2026-05-07 13:58 28.06262 -47.58573 32193 ft 552 kts 66°
2026-05-07 13:58 28.09597 -47.50757 32205 ft 551 kts 66°
2026-05-07 13:59 28.13482 -47.41636 32205 ft 551 kts 66°
2026-05-07 13:59 28.16265 -47.35086 32200 ft 551 kts 66°
2026-05-07 14:00 28.20135 -47.25965 32207 ft 550 kts 66°
2026-05-07 14:00 28.22894 -47.19449 32211 ft 551 kts 66°
2026-05-07 14:01 28.26210 -47.11600 32215 ft 550 kts 66°
2026-05-07 14:01 28.29512 -47.03769 32212 ft 551 kts 66°
2026-05-07 14:02 28.32821 -46.95910 32203 ft 551 kts 66°
2026-05-07 14:02 28.36118 -46.88063 32212 ft 550 kts 66°
2026-05-07 14:03 28.39416 -46.80193 32218 ft 551 kts 66°
2026-05-07 14:03 28.42703 -46.72340 32217 ft 551 kts 66°
2026-05-07 14:04 28.45985 -46.64482 32218 ft 551 kts 66°
2026-05-07 14:04 28.49269 -46.56600 32214 ft 552 kts 66°
2026-05-07 14:05 28.52549 -46.48711 32221 ft 551 kts 66°
2026-05-07 14:05 28.55844 -46.40775 32222 ft 551 kts 66°
2026-05-07 14:06 28.59101 -46.32913 32226 ft 550 kts 66°
2026-05-07 14:06 28.62381 -46.24979 32222 ft 551 kts 66°
2026-05-07 14:07 28.65640 -46.17082 32221 ft 551 kts 66°
2026-05-07 14:07 28.68878 -46.09216 32221 ft 550 kts 66°
2026-05-07 14:08 28.72134 -46.01292 32228 ft 551 kts 66°
2026-05-07 14:08 28.75383 -45.93368 32227 ft 551 kts 66°
2026-05-07 14:09 28.78631 -45.85430 32230 ft 551 kts 66°
2026-05-07 14:09 28.81868 -45.77504 32233 ft 552 kts 66°
2026-05-07 14:10 28.85097 -45.69579 32228 ft 551 kts 66°
2026-05-07 14:10 28.88332 -45.61627 32230 ft 551 kts 66°
2026-05-07 14:11 28.91542 -45.53718 32238 ft 551 kts 66°
2026-05-07 14:11 28.94764 -45.45762 32236 ft 551 kts 66°
2026-05-07 14:12 28.97989 -45.37785 32226 ft 551 kts 66°
2026-05-07 14:12 29.01195 -45.29839 32246 ft 550 kts 66°
2026-05-07 14:13 29.04396 -45.21882 32236 ft 551 kts 66°
2026-05-07 14:13 29.07608 -45.13888 32236 ft 551 kts 66°
2026-05-07 14:14 29.10804 -45.05916 32241 ft 551 kts 66°
2026-05-07 14:14 29.13996 -44.97930 32244 ft 552 kts 66°
2026-05-07 14:15 29.17186 -44.89942 32240 ft 552 kts 66°
2026-05-07 14:15 29.20374 -44.81940 32241 ft 552 kts 66°
2026-05-07 14:16 29.23560 -44.73922 32243 ft 552 kts 66°
2026-05-07 14:16 29.26718 -44.65961 32244 ft 552 kts 66°
2026-05-07 14:17 29.29891 -44.57942 32244 ft 552 kts 66°
2026-05-07 14:17 29.33071 -44.49891 32244 ft 552 kts 66°
2026-05-07 14:18 29.36241 -44.41849 32246 ft 552 kts 66°
2026-05-07 14:18 29.39383 -44.33855 32245 ft 552 kts 66°
2026-05-07 14:19 29.42541 -44.25812 32246 ft 552 kts 66°
2026-05-07 14:19 29.45688 -44.17771 32248 ft 552 kts 66°
2026-05-07 14:20 29.48839 -44.09708 32249 ft 552 kts 66°
2026-05-07 14:20 29.51983 -44.01647 32248 ft 552 kts 66°
2026-05-07 14:21 29.55126 -43.93562 32252 ft 552 kts 66°
2026-05-07 14:21 29.58260 -43.85494 32255 ft 553 kts 66°
2026-05-07 14:22 29.61370 -43.77461 32255 ft 552 kts 65°
2026-05-07 14:22 29.64494 -43.69381 32254 ft 552 kts 65°
2026-05-07 14:23 29.67616 -43.61285 32257 ft 552 kts 65°
2026-05-07 14:23 29.70727 -43.53197 32260 ft 553 kts 65°
2026-05-07 14:24 29.73841 -43.45092 32259 ft 553 kts 65°
2026-05-07 14:24 29.76950 -43.36973 32258 ft 553 kts 65°
2026-05-07 14:25 29.80049 -43.28869 32259 ft 553 kts 65°
2026-05-07 14:25 29.83147 -43.20748 32259 ft 553 kts 65°
2026-05-07 14:26 29.86236 -43.12633 32260 ft 553 kts 65°
2026-05-07 14:26 29.89323 -43.04507 32257 ft 552 kts 66°
2026-05-07 14:27 29.92396 -42.96389 32260 ft 552 kts 65°
2026-05-07 14:27 29.95466 -42.88269 32260 ft 552 kts 65°
2026-05-07 14:28 29.98527 -42.80153 32264 ft 552 kts 65°
2026-05-07 14:28 30.01570 -42.72062 32261 ft 552 kts 65°
2026-05-07 14:29 30.04630 -42.63917 32260 ft 552 kts 65°
2026-05-07 14:29 30.07676 -42.55783 32267 ft 552 kts 65°
2026-05-07 14:30 30.10725 -42.47629 32263 ft 552 kts 65°
2026-05-07 14:30 30.13771 -42.39464 32271 ft 552 kts 65°
2026-05-07 14:31 30.16811 -42.31291 32268 ft 552 kts 65°
2026-05-07 14:31 30.19854 -42.23097 32266 ft 552 kts 65°
2026-05-07 14:32 30.22882 -42.14918 32269 ft 552 kts 65°
2026-05-07 14:32 30.25908 -42.06732 32269 ft 552 kts 65°
2026-05-07 14:33 30.28925 -41.98553 32275 ft 552 kts 65°
2026-05-07 14:33 30.31933 -41.90372 32272 ft 552 kts 65°
2026-05-07 14:34 30.34943 -41.82174 32264 ft 552 kts 65°
2026-05-07 14:34 30.37938 -41.73991 32268 ft 552 kts 65°
2026-05-07 14:35 30.40939 -41.65775 32276 ft 552 kts 65°
2026-05-07 14:35 30.43931 -41.57571 32272 ft 552 kts 65°
2026-05-07 14:36 30.46918 -41.49351 32273 ft 552 kts 65°
2026-05-07 14:36 30.49903 -41.41126 32270 ft 552 kts 65°
2026-05-07 14:37 30.52882 -41.32893 32275 ft 552 kts 65°
2026-05-07 14:37 30.57326 -41.20578 32275 ft 552 kts 65°
2026-05-07 14:38 30.60294 -41.12334 32264 ft 552 kts 65°
2026-05-07 14:38 30.63251 -41.04095 32276 ft 552 kts 65°
2026-05-07 14:39 30.66187 -40.95895 32271 ft 552 kts 65°
2026-05-07 14:39 30.69138 -40.87630 32268 ft 552 kts 65°
2026-05-07 14:40 30.72084 -40.79365 32266 ft 552 kts 65°
2026-05-07 14:40 30.75021 -40.71106 32265 ft 552 kts 65°
2026-05-07 14:41 30.77950 -40.62844 32274 ft 551 kts 65°
2026-05-07 14:41 30.80873 -40.54585 32274 ft 551 kts 65°
2026-05-07 14:42 30.83792 -40.46317 32284 ft 551 kts 65°
2026-05-07 14:42 30.86202 -40.39468 32278 ft 551 kts 65°
2026-05-07 14:43 30.89110 -40.31195 32273 ft 550 kts 65°
2026-05-07 14:43 30.92011 -40.22918 32280 ft 550 kts 65°
2026-05-07 14:44 30.95369 -40.13309 32278 ft 549 kts 65°
2026-05-07 14:44 30.97759 -40.06397 32274 ft 550 kts 66°
2026-05-07 14:45 31.00077 -39.97922 32274 ft 551 kts 73°
2026-05-07 14:45 31.01586 -39.89112 32274 ft 553 kts 79°
2026-05-07 14:46 31.02795 -39.80238 32284 ft 553 kts 79°
2026-05-07 14:46 31.03994 -39.71356 32276 ft 553 kts 79°
2026-05-07 14:47 31.05198 -39.62535 32274 ft 553 kts 79°
2026-05-07 14:47 31.06409 -39.53665 32280 ft 553 kts 79°
2026-05-07 14:48 31.07618 -39.44779 32275 ft 553 kts 79°
2026-05-07 14:48 31.08820 -39.35906 32253 ft 553 kts 79°
2026-05-07 14:49 31.10010 -39.27063 32272 ft 553 kts 79°
2026-05-07 14:49 31.11200 -39.18188 32272 ft 553 kts 79°
2026-05-07 14:50 31.12382 -39.09307 32269 ft 553 kts 79°
2026-05-07 14:50 31.13559 -39.00424 32266 ft 553 kts 79°
2026-05-07 14:51 31.14732 -38.91526 32268 ft 553 kts 79°
2026-05-07 14:51 31.15901 -38.82615 32268 ft 553 kts 79°
2026-05-07 14:52 31.17054 -38.73768 32265 ft 553 kts 79°
2026-05-07 14:52 31.18205 -38.64886 32273 ft 553 kts 79°
2026-05-07 14:53 31.19351 -38.55993 32267 ft 553 kts 79°
2026-05-07 14:53 31.20492 -38.47095 32265 ft 553 kts 79°
2026-05-07 14:54 31.21627 -38.38180 32260 ft 553 kts 79°
2026-05-07 14:54 31.22757 -38.29269 32265 ft 553 kts 79°
2026-05-07 14:55 31.23875 -38.20402 32264 ft 553 kts 79°
2026-05-07 14:55 31.24993 -38.11471 32268 ft 554 kts 79°
2026-05-07 14:56 31.26106 -38.02545 32266 ft 554 kts 79°
2026-05-07 14:56 31.27215 -37.93599 32273 ft 554 kts 79°
2026-05-07 14:57 31.28307 -37.84722 32266 ft 555 kts 79°
2026-05-07 14:57 31.29402 -37.75786 32265 ft 555 kts 79°
2026-05-07 14:58 31.30496 -37.66781 32271 ft 555 kts 79°
2026-05-07 14:58 31.31579 -37.57836 32267 ft 555 kts 79°
2026-05-07 14:59 31.32650 -37.48944 32265 ft 555 kts 79°
2026-05-07 14:59 31.33718 -37.39990 32256 ft 554 kts 79°
2026-05-07 15:00 31.34787 -37.31016 32262 ft 555 kts 79°
2026-05-07 15:00 31.35844 -37.22067 32281 ft 555 kts 79°
2026-05-07 15:01 31.36892 -37.13114 32265 ft 553 kts 79°
2026-05-07 15:01 31.37937 -37.04170 32263 ft 553 kts 79°
2026-05-07 15:02 31.38966 -36.95288 32273 ft 552 kts 78°
2026-05-07 15:02 31.39994 -36.86365 32264 ft 551 kts 78°
2026-05-07 15:03 31.41016 -36.77459 32263 ft 551 kts 79°
2026-05-07 15:03 31.42028 -36.68568 32266 ft 549 kts 79°
2026-05-07 15:04 31.43034 -36.59672 32263 ft 549 kts 79°
2026-05-07 15:04 31.44030 -36.50808 32259 ft 549 kts 79°
2026-05-07 15:05 31.45020 -36.41943 32263 ft 549 kts 79°
2026-05-07 15:05 31.46004 -36.33060 32260 ft 551 kts 79°
2026-05-07 15:06 31.46992 -36.24111 32271 ft 551 kts 79°
2026-05-07 15:06 31.47968 -36.15213 32261 ft 549 kts 79°
2026-05-07 15:07 31.48932 -36.06347 32261 ft 549 kts 79°
2026-05-07 15:07 31.49894 -35.97447 32266 ft 548 kts 79°
2026-05-07 15:08 31.50845 -35.88585 32259 ft 547 kts 79°
2026-05-07 15:08 31.51790 -35.79722 32254 ft 547 kts 79°
2026-05-07 15:09 31.52726 -35.70879 32254 ft 547 kts 79°
2026-05-07 15:09 31.53659 -35.62013 32265 ft 547 kts 79°
2026-05-07 15:10 31.54588 -35.53131 32254 ft 547 kts 79°
2026-05-07 15:10 31.55510 -35.44242 32262 ft 548 kts 79°
2026-05-07 15:11 31.56424 -35.35382 32239 ft 548 kts 79°
2026-05-07 15:11 31.57337 -35.26478 32253 ft 548 kts 79°
2026-05-07 15:12 31.58238 -35.17593 32251 ft 548 kts 79°
2026-05-07 15:12 31.59137 -35.08700 32251 ft 548 kts 79°
2026-05-07 15:13 31.60027 -34.99836 32251 ft 548 kts 79°
2026-05-07 15:13 31.60911 -34.90936 32255 ft 548 kts 79°
2026-05-07 15:14 31.61792 -34.82040 32250 ft 548 kts 79°
2026-05-07 15:14 31.62667 -34.73128 32266 ft 548 kts 79°
2026-05-07 15:15 31.63532 -34.64246 32249 ft 547 kts 79°
2026-05-07 15:15 31.64386 -34.55411 32246 ft 547 kts 79°
2026-05-07 15:16 31.65239 -34.46532 32261 ft 547 kts 79°
2026-05-07 15:16 31.66086 -34.37646 32250 ft 547 kts 79°
2026-05-07 15:17 31.66928 -34.28737 32220 ft 547 kts 79°
2026-05-07 15:17 31.67763 -34.19841 32249 ft 547 kts 79°
2026-05-07 15:18 31.68587 -34.10997 32240 ft 547 kts 79°
2026-05-07 15:18 31.69409 -34.02111 32241 ft 547 kts 79°
2026-05-07 15:19 31.70226 -33.93210 32236 ft 547 kts 80°
2026-05-07 15:19 31.71035 -33.84315 32238 ft 547 kts 80°
2026-05-07 15:20 31.71840 -33.75404 32236 ft 547 kts 80°
2026-05-07 15:20 31.72639 -33.66491 32246 ft 547 kts 80°
2026-05-07 15:21 31.73429 -33.57597 32235 ft 546 kts 80°
2026-05-07 15:21 31.74213 -33.48713 32230 ft 546 kts 80°
2026-05-07 15:22 31.74989 -33.39834 32239 ft 547 kts 80°
2026-05-07 15:22 31.75759 -33.30962 32230 ft 547 kts 80°
2026-05-07 15:23 31.76524 -33.22073 32229 ft 547 kts 80°
2026-05-07 15:23 31.77285 -33.13165 32229 ft 547 kts 80°
2026-05-07 15:24 31.78039 -33.04246 32226 ft 547 kts 80°
2026-05-07 15:24 31.78789 -32.95319 32227 ft 547 kts 80°
2026-05-07 15:25 31.79531 -32.86390 32238 ft 547 kts 80°
2026-05-07 15:25 31.80264 -32.77502 32223 ft 547 kts 80°
2026-05-07 15:26 31.80995 -32.68585 32220 ft 548 kts 80°
2026-05-07 15:26 31.81718 -32.59662 32238 ft 548 kts 80°
2026-05-07 15:27 31.82435 -32.50728 32220 ft 548 kts 80°
2026-05-07 15:27 31.83149 -32.41785 32217 ft 548 kts 80°
2026-05-07 15:28 31.83856 -32.32820 32228 ft 548 kts 80°
2026-05-07 15:28 31.84553 -32.23914 32213 ft 549 kts 80°
2026-05-07 15:29 31.85249 -32.14942 32212 ft 549 kts 80°
2026-05-07 15:29 31.85937 -32.05988 32229 ft 549 kts 80°
2026-05-07 15:30 31.86508 -31.98492 32206 ft 549 kts 80°
2026-05-07 15:30 31.87182 -31.89572 32207 ft 549 kts 80°
2026-05-07 15:31 31.87854 -31.80591 32207 ft 549 kts 80°
2026-05-07 15:31 31.88519 -31.71608 32204 ft 549 kts 80°
2026-05-07 15:32 31.89174 -31.62689 32201 ft 549 kts 81°
2026-05-07 15:32 31.89829 -31.53681 32200 ft 549 kts 81°
2026-05-07 15:33 31.90475 -31.44695 32209 ft 550 kts 81°
2026-05-07 15:33 31.91115 -31.35713 32197 ft 550 kts 81°
2026-05-07 15:34 31.91748 -31.26745 32195 ft 550 kts 81°
2026-05-07 15:34 31.92376 -31.17735 32189 ft 550 kts 81°
2026-05-07 15:35 31.92998 -31.08733 32188 ft 550 kts 81°
2026-05-07 15:35 31.93611 -30.99780 32190 ft 550 kts 81°
2026-05-07 15:36 31.94221 -30.90746 32198 ft 552 kts 81°
2026-05-07 15:36 31.94825 -30.81726 32192 ft 552 kts 81°
2026-05-07 15:37 31.95424 -30.72694 32188 ft 552 kts 81°
2026-05-07 15:37 31.96015 -30.63652 32187 ft 553 kts 81°
2026-05-07 15:38 31.96603 -30.54585 32183 ft 554 kts 81°
2026-05-07 15:38 31.97184 -30.45523 32177 ft 554 kts 81°
2026-05-07 15:39 31.97754 -30.36512 32188 ft 555 kts 81°
2026-05-07 15:39 31.98323 -30.27417 32180 ft 555 kts 81°
2026-05-07 15:40 31.98886 -30.18309 32179 ft 555 kts 81°
2026-05-07 15:40 31.99512 -30.09293 32201 ft 554 kts 78°
2026-05-07 15:41 32.00834 -30.00393 32176 ft 549 kts 70°
2026-05-07 15:41 32.03006 -29.91825 32171 ft 541 kts 63°
2026-05-07 15:42 32.05875 -29.83601 32169 ft 537 kts 59°
2026-05-07 15:42 32.08840 -29.75538 32172 ft 538 kts 59°
2026-05-07 15:43 32.11806 -29.67420 32168 ft 538 kts 59°
2026-05-07 15:43 32.14760 -29.59265 32160 ft 539 kts 59°
2026-05-07 15:44 32.17698 -29.51113 32177 ft 539 kts 59°
2026-05-07 15:44 32.20630 -29.42955 32170 ft 538 kts 59°
2026-05-07 15:45 32.23540 -29.34842 32158 ft 539 kts 59°
2026-05-07 15:45 32.26467 -29.26661 32148 ft 539 kts 59°
2026-05-07 15:46 32.30822 -29.14442 32152 ft 538 kts 59°
2026-05-07 15:47 32.33723 -29.06285 32148 ft 538 kts 59°
2026-05-07 15:47 32.36626 -28.98103 32147 ft 538 kts 59°
2026-05-07 15:48 32.39510 -28.89942 32151 ft 538 kts 59°
2026-05-07 15:48 32.42400 -28.81756 32144 ft 537 kts 59°
2026-05-07 15:49 32.45284 -28.73569 32137 ft 538 kts 59°
2026-05-07 15:49 32.48157 -28.65387 32173 ft 538 kts 59°
2026-05-07 15:50 32.51024 -28.57193 32138 ft 538 kts 59°
2026-05-07 15:50 32.53899 -28.48970 32133 ft 538 kts 59°
2026-05-07 15:51 32.56745 -28.40811 32128 ft 538 kts 59°
2026-05-07 15:51 32.59615 -28.32557 32129 ft 538 kts 59°
2026-05-07 15:52 32.62448 -28.24389 32121 ft 538 kts 59°
2026-05-07 15:52 32.65297 -28.16152 32122 ft 538 kts 59°
2026-05-07 15:53 32.68140 -28.07915 32146 ft 538 kts 59°
2026-05-07 15:53 32.70969 -27.99685 32131 ft 539 kts 59°
2026-05-07 15:54 32.73802 -27.91437 32118 ft 539 kts 59°
2026-05-07 15:54 32.76637 -27.83163 32116 ft 539 kts 59°
2026-05-07 15:55 32.79446 -27.74935 32135 ft 539 kts 59°
2026-05-07 15:55 32.82271 -27.66641 32112 ft 540 kts 59°
2026-05-07 15:56 32.85086 -27.58361 32112 ft 540 kts 59°
2026-05-07 15:56 32.87901 -27.50060 32110 ft 540 kts 59°
2026-05-07 15:57 32.90711 -27.41741 32113 ft 540 kts 59°
2026-05-07 15:57 32.93521 -27.33410 32103 ft 540 kts 59°
2026-05-07 15:58 32.96305 -27.25135 32100 ft 541 kts 59°
2026-05-07 15:58 32.99098 -27.16810 32135 ft 541 kts 59°
2026-05-07 15:59 33.01891 -27.08457 32099 ft 541 kts 59°
2026-05-07 15:59 33.04679 -27.00104 32099 ft 541 kts 59°
2026-05-07 16:00 33.07455 -26.91767 32086 ft 541 kts 59°
2026-05-07 16:00 33.10216 -26.83447 32103 ft 541 kts 59°
2026-05-07 16:01 33.12987 -26.75077 32083 ft 541 kts 59°
2026-05-07 16:01 33.15752 -26.66707 32078 ft 541 kts 59°
2026-05-07 16:02 33.18521 -26.58296 32091 ft 541 kts 59°
2026-05-07 16:02 33.21273 -26.49917 32085 ft 540 kts 59°
2026-05-07 16:03 33.24011 -26.41558 32077 ft 540 kts 59°
2026-05-07 16:03 33.26730 -26.33234 32073 ft 540 kts 59°
2026-05-07 16:04 33.29456 -26.24871 32091 ft 540 kts 59°
2026-05-07 16:04 33.32183 -26.16479 32072 ft 539 kts 59°
2026-05-07 16:05 33.34887 -26.08134 32061 ft 539 kts 59°
2026-05-07 16:05 33.37608 -25.99715 32058 ft 539 kts 59°
2026-05-07 16:06 33.40310 -25.91333 32090 ft 538 kts 60°
2026-05-07 16:06 33.42994 -25.82977 32065 ft 537 kts 60°
2026-05-07 16:07 33.45678 -25.74605 32053 ft 537 kts 60°
2026-05-07 16:07 33.48340 -25.66281 32049 ft 537 kts 60°
2026-05-07 16:08 33.51013 -25.57907 32055 ft 536 kts 60°
2026-05-07 16:08 33.53668 -25.49552 32043 ft 536 kts 60°
2026-05-07 16:09 33.56321 -25.41185 32043 ft 536 kts 60°
2026-05-07 16:09 33.58969 -25.32811 32032 ft 536 kts 60°
2026-05-07 16:10 33.61624 -25.24392 32033 ft 537 kts 60°
2026-05-07 16:10 33.64255 -25.16025 32035 ft 537 kts 60°
2026-05-07 16:11 33.66885 -25.07639 32033 ft 537 kts 60°
2026-05-07 16:11 33.69522 -24.99219 32056 ft 536 kts 60°
2026-05-07 16:12 33.72143 -24.90814 32032 ft 536 kts 61°
2026-05-07 16:12 33.74742 -24.82454 32023 ft 536 kts 61°
2026-05-07 16:13 33.77354 -24.74029 32018 ft 536 kts 61°
2026-05-07 16:13 33.79939 -24.65680 32029 ft 535 kts 61°
2026-05-07 16:14 33.82532 -24.57269 32013 ft 535 kts 61°
2026-05-07 16:14 33.84693 -24.50242 32011 ft 535 kts 61°
2026-05-07 16:15 33.87695 -24.40453 32009 ft 535 kts 62°
2026-05-07 16:15 33.89833 -24.33469 32007 ft 534 kts 62°
2026-05-07 16:16 33.92413 -24.25011 31999 ft 534 kts 62°
2026-05-07 16:16 33.94961 -24.16630 31999 ft 534 kts 62°
2026-05-07 16:17 33.97521 -24.08186 31996 ft 534 kts 62°
2026-05-07 16:17 34.00017 -23.99747 31997 ft 536 kts 65°
2026-05-07 16:18 34.02104 -23.91067 31994 ft 539 kts 67°
2026-05-07 16:18 34.04093 -23.82373 31989 ft 539 kts 67°
2026-05-07 16:19 34.06086 -23.73650 32009 ft 539 kts 67°
2026-05-07 16:19 34.08085 -23.64905 31987 ft 538 kts 67°
2026-05-07 16:20 34.10063 -23.56231 31977 ft 538 kts 67°
2026-05-07 16:20 34.12054 -23.47477 31971 ft 538 kts 68°
2026-05-07 16:21 34.14036 -23.38729 31982 ft 538 kts 68°
2026-05-07 16:21 34.16006 -23.30005 31967 ft 538 kts 68°
2026-05-07 16:22 34.17973 -23.21264 31965 ft 538 kts 68°
2026-05-07 16:22 34.19918 -23.12587 31963 ft 538 kts 68°
2026-05-07 16:23 34.21867 -23.03853 31968 ft 537 kts 68°
2026-05-07 16:23 34.23809 -22.95132 31956 ft 537 kts 68°
2026-05-07 16:24 34.25750 -22.86381 31958 ft 537 kts 68°
2026-05-07 16:24 34.27681 -22.77645 31972 ft 537 kts 68°
2026-05-07 16:25 34.29599 -22.68924 31950 ft 536 kts 68°
2026-05-07 16:25 34.31502 -22.60251 31947 ft 536 kts 68°
2026-05-07 16:26 34.33410 -22.51519 31941 ft 536 kts 68°
2026-05-07 16:26 34.35316 -22.42771 31959 ft 535 kts 68°
2026-05-07 16:27 34.37201 -22.34078 31949 ft 534 kts 68°
2026-05-07 16:27 34.39084 -22.25359 31934 ft 534 kts 68°
2026-05-07 16:28 34.40959 -22.16650 31925 ft 534 kts 68°
2026-05-07 16:28 34.42833 -22.07917 31918 ft 534 kts 68°
2026-05-07 16:29 34.44696 -21.99196 31935 ft 534 kts 68°
2026-05-07 16:29 34.46554 -21.90468 31923 ft 534 kts 68°
2026-05-07 16:30 34.48405 -21.81738 31921 ft 534 kts 68°
2026-05-07 16:30 34.50257 -21.72979 31933 ft 535 kts 69°
2026-05-07 16:31 34.52099 -21.64226 31924 ft 535 kts 69°
2026-05-07 16:31 34.53930 -21.55492 31936 ft 536 kts 69°
2026-05-07 16:32 34.55764 -21.46708 31953 ft 536 kts 69°
2026-05-07 16:32 34.57591 -21.37923 31929 ft 535 kts 69°
2026-05-07 16:33 34.59414 -21.29122 31917 ft 536 kts 69°
2026-05-07 16:33 34.61225 -21.20350 31915 ft 536 kts 69°
2026-05-07 16:34 34.63031 -21.11569 31933 ft 535 kts 69°
2026-05-07 16:34 34.64826 -21.02802 31919 ft 535 kts 69°
2026-05-07 16:35 34.66620 -20.94010 31911 ft 535 kts 69°
2026-05-07 16:35 34.68409 -20.85206 31912 ft 535 kts 69°
2026-05-07 16:36 34.70186 -20.76427 31923 ft 535 kts 69°
2026-05-07 16:36 34.71958 -20.67635 31912 ft 534 kts 69°
2026-05-07 16:37 34.73726 -20.58824 31911 ft 534 kts 69°
2026-05-07 16:37 34.75472 -20.50087 31912 ft 535 kts 69°
2026-05-07 16:38 34.77228 -20.41277 31914 ft 534 kts 70°
2026-05-07 16:38 34.78972 -20.32480 31912 ft 534 kts 70°
2026-05-07 16:39 34.80710 -20.23676 31912 ft 534 kts 70°
2026-05-07 16:39 34.82446 -20.14851 31913 ft 535 kts 70°
2026-05-07 16:40 34.84176 -20.06038 31918 ft 533 kts 70°
2026-05-07 16:40 34.85889 -19.97253 31912 ft 533 kts 70°
2026-05-07 16:41 34.87593 -19.88479 31913 ft 533 kts 70°
2026-05-07 16:41 34.89302 -19.79648 31937 ft 533 kts 71°
2026-05-07 16:42 34.91001 -19.70843 31919 ft 532 kts 71°
2026-05-07 16:42 34.92678 -19.62098 31912 ft 532 kts 71°
2026-05-07 16:43 34.94360 -19.53298 31911 ft 532 kts 71°
2026-05-07 16:43 34.96040 -19.44475 31933 ft 532 kts 71°
2026-05-07 16:44 34.97705 -19.35699 31917 ft 530 kts 71°
2026-05-07 16:44 34.99349 -19.26983 31916 ft 530 kts 71°
2026-05-07 16:45 35.01002 -19.18187 31921 ft 530 kts 71°
2026-05-07 16:45 35.02644 -19.09423 31933 ft 530 kts 72°
2026-05-07 16:46 35.04280 -19.00653 31915 ft 529 kts 72°
2026-05-07 16:46 35.05903 -18.91895 31916 ft 529 kts 72°
2026-05-07 16:47 35.07524 -18.83119 31915 ft 529 kts 72°
2026-05-07 16:47 35.09138 -18.74347 31924 ft 529 kts 72°
2026-05-07 16:48 35.10748 -18.65554 31930 ft 529 kts 72°
2026-05-07 16:48 35.12354 -18.56754 31929 ft 529 kts 72°
2026-05-07 16:49 35.13949 -18.47978 31919 ft 529 kts 72°
2026-05-07 16:49 35.15546 -18.39182 31933 ft 528 kts 73°
2026-05-07 16:50 35.17121 -18.30431 31927 ft 528 kts 73°
2026-05-07 16:50 35.18698 -18.21624 31932 ft 529 kts 73°
2026-05-07 16:51 35.20258 -18.12875 31928 ft 528 kts 73°
2026-05-07 16:51 35.21829 -18.04072 31937 ft 528 kts 74°
2026-05-07 16:52 35.23377 -17.95277 31935 ft 528 kts 74°
2026-05-07 16:52 35.24919 -17.86480 31936 ft 528 kts 74°
2026-05-07 16:53 35.26458 -17.77683 31937 ft 527 kts 74°
2026-05-07 16:53 35.28000 -17.68925 31943 ft 529 kts 75°
2026-05-07 16:54 35.29538 -17.60093 31941 ft 529 kts 76°
2026-05-07 16:54 35.31063 -17.51254 31935 ft 529 kts 76°
2026-05-07 16:55 35.32582 -17.42415 31939 ft 529 kts 76°
2026-05-07 16:55 35.34108 -17.33587 31942 ft 530 kts 77°
2026-05-07 16:56 35.35616 -17.24726 31940 ft 530 kts 77°
2026-05-07 16:56 35.37860 -17.11450 31947 ft 530 kts 77°
2026-05-07 16:57 35.39348 -17.02647 31942 ft 530 kts 79°
2026-05-07 16:57 35.40844 -16.93773 31947 ft 531 kts 79°
2026-05-07 16:58 35.42315 -16.84885 31953 ft 531 kts 79°
2026-05-07 16:58 35.43787 -16.75994 31953 ft 531 kts 79°
2026-05-07 16:59 35.45006 -16.68623 31940 ft 531 kts 81°
2026-05-07 16:59 35.46496 -16.59675 31948 ft 533 kts 81°
2026-05-07 17:00 35.47957 -16.50733 31951 ft 533 kts 81°
2026-05-07 17:00 35.49403 -16.41851 31954 ft 533 kts 81°
2026-05-07 17:01 35.50855 -16.32912 31939 ft 533 kts 82°
2026-05-07 17:01 35.52307 -16.23949 31952 ft 534 kts 83°
2026-05-07 17:02 35.53738 -16.14991 31954 ft 534 kts 82°
2026-05-07 17:02 35.55168 -16.06025 31957 ft 534 kts 83°
2026-05-07 17:03 35.56597 -15.97067 31932 ft 535 kts 83°
2026-05-07 17:03 35.58026 -15.88102 31964 ft 535 kts 84°
2026-05-07 17:04 35.59437 -15.79115 31959 ft 535 kts 84°
2026-05-07 17:04 35.60843 -15.70129 31961 ft 535 kts 84°
2026-05-07 17:05 35.62250 -15.61149 31944 ft 535 kts 85°
2026-05-07 17:05 35.63652 -15.52164 31956 ft 535 kts 86°
2026-05-07 17:06 35.65036 -15.43155 31965 ft 535 kts 86°
2026-05-07 17:06 35.66423 -15.34105 31969 ft 535 kts 86°
2026-05-07 17:07 35.67796 -15.25110 31967 ft 535 kts 86°
2026-05-07 17:07 35.69170 -15.16065 31961 ft 535 kts 86°
2026-05-07 17:08 35.70533 -15.07054 31965 ft 535 kts 86°
2026-05-07 17:08 35.71888 -14.98041 31965 ft 535 kts 86°
2026-05-07 17:09 35.73240 -14.89026 31942 ft 537 kts 86°
2026-05-07 17:09 35.74582 -14.79997 31962 ft 537 kts 86°
2026-05-07 17:10 35.75921 -14.70942 31965 ft 537 kts 86°
2026-05-07 17:10 35.77259 -14.61847 31966 ft 537 kts 86°
2026-05-07 17:11 35.78585 -14.52808 31944 ft 539 kts 87°
2026-05-07 17:11 35.79911 -14.43695 31962 ft 540 kts 87°
2026-05-07 17:12 35.81234 -14.34550 31965 ft 540 kts 87°
2026-05-07 17:12 35.82545 -14.25440 31966 ft 539 kts 87°
2026-05-07 17:13 35.83840 -14.16339 31944 ft 539 kts 86°
2026-05-07 17:13 35.85138 -14.07230 31967 ft 539 kts 86°
2026-05-07 17:14 35.86430 -13.98138 31972 ft 539 kts 86°
2026-05-07 17:14 35.87723 -13.88967 31969 ft 539 kts 86°
2026-05-07 17:15 35.88996 -13.79861 31954 ft 540 kts 86°
2026-05-07 17:15 35.90265 -13.70748 31965 ft 540 kts 86°
2026-05-07 17:16 35.91532 -13.61596 31969 ft 540 kts 86°
2026-05-07 17:16 35.92792 -13.52441 31972 ft 540 kts 86°
2026-05-07 17:17 35.94043 -13.43286 31951 ft 540 kts 86°
2026-05-07 17:17 35.95287 -13.34139 31966 ft 540 kts 86°
2026-05-07 17:18 35.96523 -13.24998 31974 ft 539 kts 86°
2026-05-07 17:18 35.97746 -13.15890 31974 ft 539 kts 86°
2026-05-07 17:19 35.98965 -13.06743 31961 ft 540 kts 86°
2026-05-07 17:19 36.00181 -12.97594 31970 ft 540 kts 86°
2026-05-07 17:20 36.01391 -12.88432 31972 ft 539 kts 86°
2026-05-07 17:20 36.02592 -12.79270 31971 ft 539 kts 86°
2026-05-07 17:21 36.03784 -12.70091 31960 ft 540 kts 86°
2026-05-07 17:21 36.04972 -12.60926 31969 ft 540 kts 86°
2026-05-07 17:22 36.06521 -12.51841 31970 ft 545 kts 80°
2026-05-07 17:22 36.08580 -12.42797 31971 ft 545 kts 79°
2026-05-07 17:23 36.10675 -12.33760 31964 ft 546 kts 78°
2026-05-07 17:23 36.12752 -12.24729 31977 ft 545 kts 79°
2026-05-07 17:24 36.14811 -12.15694 31974 ft 545 kts 79°
2026-05-07 17:24 36.16854 -12.06674 31974 ft 545 kts 79°
2026-05-07 17:25 36.18896 -11.97603 31964 ft 544 kts 79°
2026-05-07 17:25 36.20927 -11.88569 31972 ft 544 kts 79°
2026-05-07 17:26 36.22946 -11.79552 31974 ft 544 kts 79°
2026-05-07 17:26 36.24960 -11.70521 31974 ft 544 kts 79°
2026-05-07 17:27 36.26979 -11.61432 31977 ft 544 kts 79°
2026-05-07 17:27 36.28990 -11.52365 32199 ft 548 kts 79°
2026-05-07 17:28 36.29998 -11.47850 32679 ft 546 kts 79°
2026-05-07 17:28 36.31012 -11.43306 33196 ft 543 kts 79°
2026-05-07 17:28 36.32019 -11.38774 33654 ft 542 kts 79°
2026-05-07 17:28 36.33008 -11.34302 34051 ft 542 kts 79°
2026-05-07 17:29 36.34003 -11.29775 34389 ft 542 kts 79°
2026-05-07 17:29 36.34996 -11.25234 34725 ft 542 kts 79°
2026-05-07 17:29 36.35989 -11.20701 35064 ft 542 kts 79°
2026-05-07 17:29 36.36968 -11.16231 35401 ft 542 kts 79°
2026-05-07 17:30 36.37962 -11.11688 35735 ft 541 kts 79°
2026-05-07 17:30 36.38952 -11.07150 35970 ft 541 kts 79°
2026-05-07 17:30 36.40915 -10.98131 35975 ft 541 kts 79°
2026-05-07 17:31 36.42862 -10.89124 35961 ft 542 kts 79°
2026-05-07 17:31 36.44816 -10.80069 35968 ft 542 kts 79°
2026-05-07 17:32 36.46778 -10.70953 35971 ft 542 kts 79°
2026-05-07 17:32 36.48397 -10.63394 35981 ft 542 kts 79°
2026-05-07 17:33 36.50651 -10.52817 35971 ft 543 kts 79°
2026-05-07 17:33 36.52572 -10.43762 35973 ft 544 kts 79°
2026-05-07 17:34 36.54505 -10.34630 35990 ft 544 kts 79°
2026-05-07 17:34 36.56423 -10.25525 35969 ft 544 kts 79°
2026-05-07 17:35 36.58334 -10.16400 35959 ft 544 kts 78°
2026-05-07 17:35 36.60244 -10.07252 35966 ft 544 kts 78°
2026-05-07 17:36 36.62145 -9.98122 35970 ft 544 kts 79°
2026-05-07 17:36 36.64026 -9.89045 35970 ft 544 kts 79°
2026-05-07 17:37 36.65916 -9.79869 35961 ft 545 kts 78°
2026-05-07 17:37 36.67794 -9.70716 35967 ft 546 kts 78°
2026-05-07 17:38 36.69674 -9.61538 35967 ft 545 kts 78°
2026-05-07 17:38 36.71540 -9.52379 35965 ft 545 kts 79°
2026-05-07 17:39 36.73401 -9.43188 35954 ft 546 kts 78°
2026-05-07 17:39 36.75253 -9.34005 35965 ft 547 kts 78°
2026-05-07 17:40 36.77112 -9.24771 35964 ft 547 kts 78°
2026-05-07 17:40 36.78957 -9.15561 35967 ft 547 kts 78°
2026-05-07 17:41 36.80796 -9.06330 35952 ft 547 kts 78°
2026-05-07 17:41 36.82628 -8.97084 35958 ft 548 kts 78°
2026-05-07 17:42 36.84460 -8.87825 35958 ft 548 kts 78°
2026-05-07 17:42 36.86279 -8.78578 35957 ft 552 kts 78°
2026-05-07 17:43 36.88109 -8.69226 35932 ft 554 kts 78°
2026-05-07 17:43 36.89934 -8.59853 35952 ft 555 kts 78°
2026-05-07 17:44 36.91453 -8.52045 35946 ft 555 kts 78°
2026-05-07 17:44 36.93271 -8.42648 35940 ft 555 kts 78°
2026-05-07 17:45 36.95082 -8.33234 35928 ft 555 kts 78°
2026-05-07 17:45 36.97173 -8.22303 35933 ft 555 kts 78°
2026-05-07 17:46 36.98675 -8.14432 35924 ft 555 kts 78°
2026-05-07 17:46 37.00449 -8.05093 35923 ft 555 kts 78°
2026-05-07 17:47 37.02227 -7.95685 35925 ft 555 kts 78°
2026-05-07 17:47 37.03997 -7.86272 35927 ft 555 kts 78°
2026-05-07 17:48 37.05760 -7.76852 35926 ft 555 kts 78°
2026-05-07 17:48 37.07518 -7.67416 35922 ft 555 kts 78°
2026-05-07 17:49 37.09264 -7.57985 35900 ft 555 kts 78°
2026-05-07 17:49 37.11003 -7.48554 35904 ft 555 kts 78°
2026-05-07 17:50 37.12737 -7.39117 35921 ft 555 kts 78°
2026-05-07 17:50 37.14519 -7.29689 35912 ft 555 kts 77°
2026-05-07 17:51 37.16327 -7.20270 35909 ft 555 kts 77°
2026-05-07 17:51 37.18120 -7.10834 35920 ft 555 kts 77°
2026-05-07 17:52 37.19907 -7.01398 35921 ft 555 kts 77°
2026-05-07 17:52 37.21671 -6.92025 35925 ft 555 kts 77°
2026-05-07 17:53 37.23580 -6.81807 35925 ft 555 kts 77°
2026-05-07 17:53 37.27095 -6.62884 35917 ft 556 kts 77°
2026-05-07 17:54 37.31046 -6.44068 35935 ft 556 kts 71°
2026-05-07 17:54 37.35781 -6.25534 35927 ft 556 kts 71°
2026-05-07 17:55 37.40460 -6.06916 35904 ft 556 kts 71°
2026-05-07 17:55 37.45066 -5.88405 35894 ft 556 kts 71°
2026-05-07 17:56 37.49701 -5.69649 35899 ft 556 kts 71°
2026-05-07 17:56 37.53612 -5.53697 35898 ft 556 kts 71°
2026-05-07 17:57 37.55510 -5.45930 35888 ft 556 kts 71°
2026-05-07 17:57 37.58147 -5.35075 35886 ft 556 kts 71°
2026-05-07 17:58 37.60140 -5.25620 35898 ft 557 kts 77°
2026-05-07 17:58 37.61268 -5.15934 35884 ft 558 kts 84°
2026-05-07 17:59 37.61932 -5.06184 35878 ft 558 kts 85°
2026-05-07 17:59 37.62568 -4.96441 35876 ft 558 kts 85°
2026-05-07 18:00 37.63219 -4.86656 35879 ft 558 kts 84°
2026-05-07 18:00 37.63880 -4.76862 35878 ft 559 kts 84°
2026-05-07 18:01 37.64533 -4.67080 35884 ft 558 kts 84°
2026-05-07 18:01 37.65179 -4.57294 36032 ft 561 kts 84°
2026-05-07 18:02 37.65811 -4.47530 36662 ft 558 kts 84°
2026-05-07 18:02 37.66127 -4.42636 36965 ft 557 kts 84°
2026-05-07 18:02 37.66439 -4.37764 37245 ft 556 kts 84°
2026-05-07 18:03 37.66749 -4.32893 37489 ft 556 kts 84°
2026-05-07 18:03 37.67057 -4.28016 37722 ft 555 kts 84°
2026-05-07 18:03 37.67362 -4.23151 37898 ft 555 kts 84°
2026-05-07 18:04 37.67967 -4.13416 37899 ft 555 kts 85°
2026-05-07 18:04 37.68565 -4.03654 37912 ft 555 kts 85°
2026-05-07 18:05 37.69320 -3.91125 37908 ft 555 kts 85°
2026-05-07 18:05 37.70462 -3.71698 37917 ft 555 kts 84°
2026-05-07 18:06 37.71579 -3.52258 37930 ft 555 kts 85°
2026-05-07 18:06 37.72664 -3.32697 37949 ft 554 kts 85°
2026-05-07 18:07 37.73724 -3.13106 37956 ft 554 kts 85°
2026-05-07 18:07 37.74741 -2.93625 37953 ft 555 kts 85°
2026-05-07 18:08 37.76096 -2.74065 37966 ft 554 kts 79°
2026-05-07 18:08 37.78586 -2.54892 37977 ft 555 kts 78°
2026-05-07 18:09 37.81033 -2.35591 37980 ft 555 kts 79°
2026-05-07 18:09 37.83444 -2.16216 37982 ft 556 kts 79°
2026-05-07 18:10 37.85822 -1.96821 37980 ft 556 kts 79°
2026-05-07 18:10 37.88174 -1.77387 37976 ft 559 kts 79°
2026-05-07 18:11 37.90497 -1.57871 37967 ft 560 kts 80°
2026-05-07 18:11 37.92185 -1.38208 37958 ft 561 kts 83°
2026-05-07 18:12 37.93719 -1.18546 37955 ft 560 kts 83°
2026-05-07 18:12 37.95222 -0.99028 37977 ft 557 kts 83°
2026-05-07 18:13 37.96699 -0.79514 37958 ft 555 kts 83°
2026-05-07 18:13 37.98148 -0.59954 37962 ft 555 kts 83°
2026-05-07 18:14 37.99557 -0.40412 37954 ft 555 kts 83°
2026-05-07 18:14 38.00933 -0.20900 37948 ft 555 kts 83°
2026-05-07 18:15 38.02279 -0.01350 37956 ft 555 kts 84°
2026-05-07 18:15 38.03585 0.18064 37951 ft 550 kts 84°
2026-05-07 18:16 38.04844 0.37309 37946 ft 550 kts 84°
2026-05-07 18:16 38.06076 0.56580 37945 ft 545 kts 85°
2026-05-07 18:17 38.07267 0.75754 37940 ft 545 kts 85°
2026-05-07 18:17 38.08431 0.94927 37932 ft 543 kts 85°
2026-05-07 18:18 38.09558 1.14103 37924 ft 542 kts 86°
2026-05-07 18:18 38.10664 1.33388 37918 ft 545 kts 86°
2026-05-07 18:19 38.11732 1.52624 37916 ft 545 kts 86°
2026-05-07 18:19 38.12773 1.71855 37907 ft 544 kts 87°
2026-05-07 18:20 38.13769 1.90947 37893 ft 544 kts 87°
2026-05-07 18:20 38.14742 2.10081 37910 ft 541 kts 88°
2026-05-07 18:21 38.15677 2.29216 37887 ft 541 kts 88°
2026-05-07 18:21 38.16472 2.45939 37904 ft 538 kts 89°
2026-05-07 18:22 38.16910 2.55450 37908 ft 536 kts 89°
2026-05-07 18:22 38.17336 2.64875 37908 ft 536 kts 89°
2026-05-07 18:23 38.17755 2.74368 38006 ft 531 kts 88°
2026-05-07 18:23 38.18153 2.83792 37921 ft 535 kts 90°
2026-05-07 18:24 38.18564 2.93264 37913 ft 536 kts 90°
2026-05-07 18:24 38.18961 3.02674 37908 ft 536 kts 90°
2026-05-07 18:25 38.19358 3.12150 37901 ft 536 kts 91°
2026-05-07 18:25 38.19739 3.21647 37912 ft 537 kts 91°
2026-05-07 18:26 38.20110 3.31141 37910 ft 537 kts 91°
2026-05-07 18:26 38.20476 3.40634 37910 ft 537 kts 91°
2026-05-07 18:27 38.21130 3.58081 37913 ft 537 kts 91°
2026-05-07 18:27 38.21813 3.77087 37913 ft 536 kts 91°
2026-05-07 18:28 38.22468 3.96042 37910 ft 541 kts 92°
2026-05-07 18:28 38.23091 4.15223 37916 ft 541 kts 92°
2026-05-07 18:29 38.23690 4.34452 37914 ft 545 kts 93°
2026-05-07 18:29 38.24257 4.53775 37919 ft 545 kts 93°
2026-05-07 18:30 38.24793 4.73020 37919 ft 546 kts 93°
2026-05-07 18:30 38.25274 4.91455 37913 ft 547 kts 94°
2026-05-07 18:31 38.25751 5.10906 37918 ft 548 kts 94°
2026-05-07 18:31 38.26196 5.30321 37920 ft 548 kts 94°
2026-05-07 18:32 38.26608 5.49720 37917 ft 551 kts 94°
2026-05-07 18:32 38.26774 5.57983 37919 ft 551 kts 94°
2026-05-07 18:33 38.26963 5.67755 37919 ft 551 kts 94°
2026-05-07 18:33 38.27143 5.77546 37906 ft 552 kts 94°
2026-05-07 18:34 38.27314 5.87273 37919 ft 552 kts 94°
2026-05-07 18:34 38.27480 5.97056 37924 ft 552 kts 94°
2026-05-07 18:35 38.27637 6.06834 37921 ft 552 kts 94°
2026-05-07 18:35 38.27783 6.16645 37913 ft 552 kts 94°
2026-05-07 18:36 38.27924 6.26442 37923 ft 552 kts 94°
2026-05-07 18:36 38.28057 6.36176 37920 ft 552 kts 94°
2026-05-07 18:37 38.28182 6.46000 37920 ft 552 kts 94°
2026-05-07 18:37 38.28292 6.55821 37915 ft 555 kts 94°
2026-05-07 18:38 38.28354 6.65571 37865 ft 548 kts 94°
2026-05-07 18:38 38.28469 6.75378 37921 ft 555 kts 94°
2026-05-07 18:39 38.28582 6.85174 37903 ft 555 kts 94°
2026-05-07 18:39 38.28686 6.96740 37934 ft 555 kts 94°
2026-05-07 18:40 38.28831 7.16528 37929 ft 555 kts 94°
2026-05-07 18:40 38.28938 7.36222 37932 ft 555 kts 94°
2026-05-07 18:41 38.29012 7.55793 37925 ft 555 kts 94°
2026-05-07 18:41 38.29051 7.75450 37923 ft 552 kts 94°
2026-05-07 18:42 38.29062 7.95077 37931 ft 552 kts 94°
2026-05-07 18:42 38.29038 8.14607 37926 ft 550 kts 94°
2026-05-07 18:43 38.28776 8.34010 37929 ft 549 kts 96°
2026-05-07 18:43 38.28198 8.53393 37925 ft 545 kts 96°
2026-05-07 18:44 38.27631 8.72724 37906 ft 545 kts 96°
2026-05-07 18:44 38.27036 8.92104 37929 ft 546 kts 96°
2026-05-07 18:45 38.26411 9.11459 37904 ft 547 kts 97°
2026-05-07 18:45 38.25751 9.30848 37934 ft 551 kts 97°
2026-05-07 18:46 38.25059 9.50374 37919 ft 553 kts 98°
2026-05-07 18:46 38.24313 9.70059 37932 ft 556 kts 98°
2026-05-07 18:47 38.23544 9.89776 37934 ft 557 kts 99°
2026-05-07 18:47 38.22736 10.09534 37938 ft 558 kts 99°
2026-05-07 18:48 38.21824 10.31243 37935 ft 560 kts 100°
2026-05-07 18:48 38.20889 10.52156 37940 ft 560 kts 100°
2026-05-07 18:49 38.19945 10.72766 37936 ft 566 kts 101°
2026-05-07 18:49 38.18931 10.93849 37937 ft 566 kts 102°
2026-05-07 18:50 38.17936 11.13893 37935 ft 565 kts 102°
2026-05-07 18:50 38.16890 11.34268 37915 ft 569 kts 102°
2026-05-07 18:51 38.15810 11.54583 37932 ft 572 kts 102°
2026-05-07 18:51 38.14704 11.74690 37922 ft 574 kts 102°
2026-05-07 18:52 38.13934 11.88417 37934 ft 575 kts 102°
2026-05-07 18:52 38.13358 11.98527 37928 ft 575 kts 102°
2026-05-07 18:53 38.12764 12.08676 37898 ft 574 kts 101°
2026-05-07 18:53 38.12167 12.18778 37911 ft 574 kts 101°
2026-05-07 18:54 38.11564 12.28908 37903 ft 574 kts 101°
2026-05-07 18:54 38.10951 12.39032 37891 ft 574 kts 101°
2026-05-07 18:55 38.10325 12.49129 37879 ft 570 kts 101°
2026-05-07 18:55 38.09700 12.59181 37888 ft 569 kts 101°
2026-05-07 18:56 38.09069 12.69161 37887 ft 569 kts 101°
2026-05-07 18:56 38.08422 12.79203 37865 ft 569 kts 101°
2026-05-07 18:57 38.07775 12.89203 37880 ft 570 kts 101°
2026-05-07 18:57 38.07178 12.98349 37871 ft 571 kts 101°
2026-05-07 18:58 38.06510 13.08398 37871 ft 571 kts 101°
2026-05-07 18:58 38.05824 13.18475 37923 ft 574 kts 100°
2026-05-07 18:58 38.05476 13.23536 38102 ft 575 kts 100°
2026-05-07 18:59 38.05133 13.28547 38329 ft 574 kts 100°
2026-05-07 18:59 38.04787 13.33605 38566 ft 574 kts 100°
2026-05-07 18:59 38.04438 13.38651 38755 ft 573 kts 100°
2026-05-07 18:59 38.04085 13.43697 38901 ft 572 kts 100°
2026-05-07 19:00 38.03732 13.48740 38890 ft 571 kts 100°
2026-05-07 19:00 38.02808 13.61656 38900 ft 574 kts 100°
2026-05-07 19:01 38.01233 13.81930 38917 ft 573 kts 102°
2026-05-07 19:01 37.99260 14.01868 38918 ft 571 kts 102°
2026-05-07 19:02 37.97288 14.21936 38890 ft 571 kts 102°
2026-05-07 19:02 37.95293 14.41922 38915 ft 570 kts 101°
2026-05-07 19:03 37.93267 14.61942 38908 ft 570 kts 102°
2026-05-07 19:03 37.91196 14.81995 38913 ft 570 kts 102°
2026-05-07 19:04 37.89097 15.01936 38913 ft 570 kts 101°
2026-05-07 19:04 37.86971 15.21908 38926 ft 570 kts 101°
2026-05-07 19:05 37.84816 15.41781 38929 ft 568 kts 101°
2026-05-07 19:05 37.82632 15.61620 38930 ft 568 kts 101°
2026-05-07 19:06 37.80422 15.81338 38930 ft 568 kts 101°
2026-05-07 19:06 37.77030 16.11056 38935 ft 567 kts 101°
2026-05-07 19:07 37.74738 16.30806 38948 ft 567 kts 101°
2026-05-07 19:07 37.72404 16.50560 38936 ft 567 kts 101°
2026-05-07 19:08 37.70041 16.70315 38933 ft 567 kts 101°
2026-05-07 19:08 37.67655 16.89940 38938 ft 568 kts 101°
2026-05-07 19:09 37.65223 17.09661 38940 ft 567 kts 100°
2026-05-07 19:09 37.62765 17.29348 38954 ft 566 kts 100°
2026-05-07 19:10 37.60272 17.48980 38962 ft 564 kts 100°
2026-05-07 19:10 37.57762 17.68560 38971 ft 564 kts 100°
2026-05-07 19:11 37.55227 17.88019 38975 ft 558 kts 100°
2026-05-07 19:11 37.52684 18.07312 38986 ft 557 kts 100°
2026-05-07 19:12 37.50104 18.26619 38991 ft 557 kts 100°
2026-05-07 19:12 37.47486 18.45962 39003 ft 557 kts 100°
2026-05-07 19:13 37.44852 18.65172 39010 ft 556 kts 101°
2026-05-07 19:13 37.42181 18.84400 39015 ft 558 kts 100°
2026-05-07 19:14 37.40066 19.03768 39034 ft 558 kts 91°
2026-05-07 19:14 37.40270 19.23181 39037 ft 557 kts 87°
2026-05-07 19:15 37.40553 19.42718 39056 ft 557 kts 87°
2026-05-07 19:15 37.40762 19.62220 39064 ft 555 kts 87°
2026-05-07 19:16 37.40943 19.81702 39072 ft 555 kts 87°
2026-05-07 19:16 37.41091 20.01204 39079 ft 556 kts 87°
2026-05-07 19:17 37.41202 20.20710 39086 ft 554 kts 87°
2026-05-07 19:17 37.41288 20.40009 39095 ft 554 kts 87°
2026-05-07 19:18 37.41337 20.59398 39098 ft 551 kts 87°
2026-05-07 19:18 37.41360 20.78699 39104 ft 551 kts 87°
2026-05-07 19:19 37.41347 20.97977 39105 ft 548 kts 87°
2026-05-07 19:19 37.41308 21.17194 39111 ft 547 kts 86°
2026-05-07 19:20 37.41245 21.36302 39110 ft 545 kts 86°
2026-05-07 19:20 37.41149 21.55402 39123 ft 545 kts 87°
2026-05-07 19:21 37.41026 21.74380 39127 ft 545 kts 87°
2026-05-07 19:21 37.40878 21.93458 39149 ft 544 kts 86°
2026-05-07 19:22 37.40733 22.09445 39156 ft 544 kts 86°
2026-05-07 19:22 37.40209 22.28526 39163 ft 546 kts 93°
2026-05-07 19:23 37.36653 22.47109 39166 ft 552 kts 108°
2026-05-07 19:23 37.31284 22.65216 39163 ft 552 kts 108°
2026-05-07 19:24 37.25963 22.83317 39157 ft 552 kts 108°
2026-05-07 19:24 37.20617 23.01445 39143 ft 553 kts 108°
2026-05-07 19:25 37.15234 23.19561 39143 ft 554 kts 108°
2026-05-07 19:25 37.09808 23.37691 39145 ft 554 kts 108°
2026-05-07 19:26 37.04340 23.55796 39143 ft 554 kts 108°
2026-05-07 19:26 36.98859 23.73848 39142 ft 554 kts 108°
2026-05-07 19:27 36.93298 23.92036 39154 ft 554 kts 108°
2026-05-07 19:27 36.87805 24.09897 39162 ft 554 kts 108°
2026-05-07 19:28 36.82232 24.27925 39161 ft 554 kts 108°
2026-05-07 19:28 36.76691 24.45898 39164 ft 553 kts 105°
2026-05-07 19:29 36.73390 24.64450 39165 ft 544 kts 91°
2026-05-07 19:29 36.71610 24.83196 39166 ft 544 kts 92°
2026-05-07 19:30 36.69694 25.01949 39171 ft 544 kts 92°
2026-05-07 19:30 36.67718 25.20672 39167 ft 543 kts 93°
2026-05-07 19:31 36.65352 25.39340 39169 ft 544 kts 93°
2026-05-07 19:31 36.63419 25.58094 39169 ft 541 kts 91°
2026-05-07 19:32 36.61500 25.76750 39166 ft 543 kts 91°
2026-05-07 19:32 36.59538 25.95319 39186 ft 543 kts 91°
2026-05-07 19:33 36.57521 26.14081 39169 ft 546 kts 91°
2026-05-07 19:33 36.55427 26.32906 39180 ft 549 kts 91°
2026-05-07 19:34 36.53255 26.51724 39169 ft 549 kts 91°
2026-05-07 19:34 36.51048 26.70572 39169 ft 550 kts 91°
2026-05-07 19:35 36.48813 26.89425 39174 ft 551 kts 90°
2026-05-07 19:35 36.46518 27.08298 39165 ft 551 kts 90°
2026-05-07 19:36 36.44234 27.27035 39168 ft 552 kts 90°
2026-05-07 19:36 36.41897 27.46020 39157 ft 553 kts 90°
2026-05-07 19:37 36.39536 27.64903 39147 ft 552 kts 90°
2026-05-07 19:37 36.37139 27.83775 39169 ft 552 kts 90°
2026-05-07 19:38 36.34704 28.02636 39176 ft 553 kts 91°
2026-05-07 19:38 36.30695 28.21332 39148 ft 564 kts 101°
2026-05-07 19:39 36.25862 28.39933 39156 ft 563 kts 101°
2026-05-07 19:39 36.21089 28.58405 39152 ft 562 kts 101°
2026-05-07 19:40 36.16331 28.76653 39155 ft 557 kts 102°
2026-05-07 19:40 36.11518 28.94932 39159 ft 557 kts 102°
2026-05-07 19:41 36.06722 29.13059 39163 ft 551 kts 103°
2026-05-07 19:41 36.01928 29.31056 39161 ft 548 kts 103°
2026-05-07 19:42 35.97177 29.48749 39154 ft 547 kts 103°
2026-05-07 19:42 35.94780 29.57657 39161 ft 545 kts 104°
2026-05-07 19:43 35.92394 29.66536 39151 ft 543 kts 104°
2026-05-07 19:43 35.90006 29.75388 39151 ft 543 kts 104°
2026-05-07 19:44 35.87688 29.84167 39113 ft 531 kts 104°
2026-05-07 19:44 35.86501 29.88507 38882 ft 536 kts 105°
2026-05-07 19:44 35.85262 29.92867 38591 ft 540 kts 105°
2026-05-07 19:45 35.82880 30.01591 38527 ft 539 kts 103°
2026-05-07 19:45 35.80680 30.10423 38529 ft 539 kts 103°
2026-05-07 19:46 35.78491 30.19248 38544 ft 536 kts 103°
2026-05-07 19:46 35.76276 30.28023 38546 ft 536 kts 103°
2026-05-07 19:47 35.74044 30.36806 38544 ft 536 kts 104°
2026-05-07 19:47 35.71812 30.45570 38554 ft 535 kts 104°
2026-05-07 19:48 35.69579 30.54301 38553 ft 534 kts 104°
2026-05-07 19:48 35.67335 30.63045 38554 ft 534 kts 104°
2026-05-07 19:49 35.65090 30.71765 38554 ft 534 kts 104°
2026-05-07 19:49 35.62852 30.80430 38554 ft 534 kts 104°
2026-05-07 19:50 35.60603 30.89171 38558 ft 534 kts 104°
2026-05-07 19:50 35.57641 31.00930 38574 ft 529 kts 104°
2026-05-07 19:51 35.53249 31.18228 38769 ft 526 kts 104°
2026-05-07 19:51 35.51059 31.26806 38882 ft 526 kts 104°
2026-05-07 19:51 35.48863 31.35381 38971 ft 525 kts 104°
2026-05-07 19:52 35.44443 31.52528 39154 ft 524 kts 104°
2026-05-07 19:52 35.40026 31.69566 39149 ft 529 kts 105°
2026-05-07 19:53 35.35533 31.86780 39152 ft 527 kts 105°
2026-05-07 19:53 35.31020 32.03946 39152 ft 527 kts 105°
2026-05-07 19:54 35.26549 32.21043 39154 ft 525 kts 105°
2026-05-07 19:54 35.22061 32.38123 39158 ft 524 kts 105°
2026-05-07 19:55 35.17555 32.55153 39154 ft 523 kts 105°
2026-05-07 19:55 35.13043 32.72097 39157 ft 519 kts 106°
2026-05-07 19:56 35.08521 32.88965 39166 ft 519 kts 106°
2026-05-07 19:56 35.03803 33.05738 39145 ft 517 kts 108°
2026-05-07 19:57 34.99018 33.22290 39145 ft 517 kts 108°
2026-05-07 19:57 34.96229 33.31919 39128 ft 517 kts 108°
2026-05-07 19:58 34.93838 33.40138 39137 ft 517 kts 108°
2026-05-07 19:58 34.91424 33.48418 39145 ft 517 kts 108°
2026-05-07 19:59 34.89013 33.56673 39153 ft 517 kts 108°
2026-05-07 19:59 34.86614 33.64938 39144 ft 516 kts 107°
2026-05-07 20:00 34.84396 33.73272 39142 ft 517 kts 106°
2026-05-07 20:00 34.82185 33.81624 39122 ft 518 kts 107°
2026-05-07 20:01 34.79945 33.89966 39118 ft 518 kts 107°
2026-05-07 20:01 34.77699 33.98300 39128 ft 518 kts 107°
2026-05-07 20:02 34.75457 34.06621 39123 ft 518 kts 107°
2026-05-07 20:02 34.73200 34.14949 39124 ft 518 kts 107°
2026-05-07 20:03 34.70930 34.23270 39125 ft 518 kts 107°
2026-05-07 20:03 34.68667 34.31537 39125 ft 518 kts 107°
2026-05-07 20:04 34.66382 34.39852 39120 ft 518 kts 107°
2026-05-07 20:04 34.64094 34.48154 39128 ft 518 kts 108°
2026-05-07 20:05 34.61802 34.56459 39123 ft 518 kts 108°
2026-05-07 20:05 34.59501 34.64756 39123 ft 518 kts 108°
2026-05-07 20:06 34.57197 34.73046 39123 ft 518 kts 108°
2026-05-07 20:06 34.54888 34.81335 39128 ft 518 kts 108°
2026-05-07 20:07 34.52570 34.89621 39121 ft 518 kts 108°
2026-05-07 20:07 34.50246 34.97904 39112 ft 518 kts 108°
2026-05-07 20:08 34.47938 35.06120 39109 ft 518 kts 108°
2026-05-07 20:08 34.45635 35.14412 39071 ft 514 kts 108°
2026-05-07 20:09 34.44499 35.18507 38667 ft 511 kts 108°
2026-05-07 20:09 34.43360 35.22597 37918 ft 512 kts 108°
2026-05-07 20:09 34.42217 35.26696 37375 ft 513 kts 108°
2026-05-07 20:10 34.39927 35.34899 36276 ft 514 kts 108°
2026-05-07 20:10 34.38774 35.39016 35743 ft 515 kts 107°
2026-05-07 20:10 34.37620 35.43129 35229 ft 515 kts 107°
2026-05-07 20:10 34.36465 35.47245 34708 ft 516 kts 107°
2026-05-07 20:11 34.35697 35.49978 34368 ft 516 kts 107°
2026-05-07 20:11 34.34543 35.54099 33836 ft 516 kts 108°
2026-05-07 20:11 34.32993 35.59581 33115 ft 511 kts 108°
2026-05-07 20:11 34.32263 35.62286 32755 ft 509 kts 106°
2026-05-07 20:12 34.31308 35.66407 32244 ft 509 kts 102°
2026-05-07 20:12 34.30538 35.70593 31729 ft 510 kts 99°
2026-05-07 20:12 34.29821 35.76211 31082 ft 507 kts 95°
2026-05-07 20:12 34.29592 35.79084 30746 ft 507 kts 92°
2026-05-07 20:13 34.29381 35.83355 30267 ft 508 kts 91°
2026-05-07 20:13 34.29210 35.87624 29720 ft 508 kts 90°
2026-05-07 20:13 34.29046 35.91831 29219 ft 505 kts 90°
2026-05-07 20:13 34.28865 35.96138 28724 ft 506 kts 91°
2026-05-07 20:14 34.28678 36.00389 28230 ft 507 kts 91°
2026-05-07 20:14 34.28513 36.04661 27755 ft 508 kts 90°
2026-05-07 20:14 34.28364 36.08934 27298 ft 509 kts 90°
2026-05-07 20:14 34.28218 36.13220 26838 ft 510 kts 90°
2026-05-07 20:15 34.28073 36.17452 26415 ft 511 kts 90°
2026-05-07 20:15 34.27922 36.21745 26011 ft 509 kts 90°
2026-05-07 20:15 34.27768 36.26020 25666 ft 506 kts 90°
2026-05-07 20:15 34.27615 36.30264 25281 ft 501 kts 90°
2026-05-07 20:16 34.27458 36.34488 25014 ft 489 kts 90°
2026-05-07 20:16 34.27307 36.38497 24874 ft 476 kts 90°
2026-05-07 20:16 34.27155 36.42495 24736 ft 463 kts 90°
2026-05-07 20:16 34.27008 36.46303 24557 ft 456 kts 91°
2026-05-07 20:17 34.26413 36.50090 24276 ft 452 kts 110°
2026-05-07 20:17 34.24860 36.53290 23997 ft 444 kts 131°
2026-05-07 20:17 34.22558 36.55674 23721 ft 431 kts 151°
2026-05-07 20:17 34.19834 36.57035 23302 ft 418 kts 171°
2026-05-07 20:18 34.16987 36.57326 22582 ft 407 kts 188°
2026-05-07 20:18 34.14209 36.56959 21818 ft 397 kts 191°
2026-05-07 20:18 34.11492 36.56545 21138 ft 387 kts 191°
2026-05-07 20:18 34.08851 36.56161 20497 ft 378 kts 190°
2026-05-07 20:19 34.06264 36.55805 19855 ft 370 kts 189°
2026-05-07 20:19 34.03728 36.55473 19233 ft 363 kts 189°
2026-05-07 20:19 34.01224 36.55153 18625 ft 360 kts 189°
2026-05-07 20:19 33.98728 36.54840 18040 ft 362 kts 189°
2026-05-07 20:20 33.96226 36.54530 17765 ft 355 kts 189°
2026-05-07 20:20 33.93805 36.54233 17497 ft 346 kts 189°
2026-05-07 20:20 33.91456 36.53943 17059 ft 342 kts 189°
2026-05-07 20:20 33.89096 36.53650 16604 ft 340 kts 189°
2026-05-07 20:21 33.86751 36.53359 16153 ft 337 kts 189°
2026-05-07 20:21 33.84423 36.53068 15725 ft 335 kts 189°
2026-05-07 20:21 33.82123 36.52765 15402 ft 329 kts 189°
2026-05-07 20:21 33.79890 36.52470 15231 ft 318 kts 190°
2026-05-07 20:22 33.77717 36.52186 15049 ft 309 kts 190°
2026-05-07 20:22 33.75602 36.51905 14736 ft 305 kts 190°
2026-05-07 20:22 33.73496 36.51623 14252 ft 304 kts 190°
2026-05-07 20:22 33.71405 36.51346 13814 ft 301 kts 190°
2026-05-07 20:23 33.69334 36.51070 13286 ft 298 kts 189°
2026-05-07 20:23 33.67267 36.50795 12702 ft 291 kts 189°
2026-05-07 20:23 33.65287 36.50525 12241 ft 281 kts 192°
2026-05-07 20:23 33.63484 36.49783 11764 ft 269 kts 207°
2026-05-07 20:24 33.61759 36.49092 11304 ft 265 kts 185°
2026-05-07 20:24 33.59938 36.49199 10889 ft 258 kts 176°
2026-05-07 20:24 33.58184 36.49322 10529 ft 247 kts 182°
2026-05-07 20:24 33.56504 36.49237 10149 ft 237 kts 184°
2026-05-07 20:25 33.54889 36.49107 9741 ft 229 kts 185°
2026-05-07 20:25 33.53320 36.48950 9293 ft 224 kts 185°
2026-05-07 20:25 33.51784 36.48780 8849 ft 219 kts 185°
2026-05-07 20:25 33.50273 36.48602 8404 ft 213 kts 185°
2026-05-07 20:26 33.48827 36.48425 8060 ft 203 kts 185°
2026-05-07 20:26 33.47452 36.48256 8033 ft 197 kts 185°
2026-05-07 20:26 33.46091 36.48089 8023 ft 197 kts 185°
2026-05-07 20:26 33.44730 36.47920 8054 ft 198 kts 185°
2026-05-07 20:27 33.43345 36.47748 8037 ft 201 kts 185°
2026-05-07 20:27 33.41947 36.47575 8026 ft 202 kts 185°
2026-05-07 20:27 33.40549 36.47399 8024 ft 202 kts 185°
2026-05-07 20:27 33.39149 36.47224 8019 ft 204 kts 185°
2026-05-07 20:28 33.37733 36.47050 8026 ft 209 kts 185°
2026-05-07 20:28 33.36268 36.46871 8025 ft 214 kts 185°
2026-05-07 20:28 33.34782 36.46681 8024 ft 215 kts 188°
2026-05-07 20:28 33.33392 36.46023 8026 ft 217 kts 206°
2026-05-07 20:29 33.32053 36.45292 8018 ft 208 kts 201°
2026-05-07 20:29 33.30725 36.44663 7974 ft 201 kts 200°
2026-05-07 20:29 33.29426 36.44058 7578 ft 201 kts 200°
2026-05-07 20:29 33.28116 36.43446 7155 ft 201 kts 200°
2026-05-07 20:30 33.26814 36.42832 7034 ft 202 kts 200°
2026-05-07 20:30 33.25502 36.42210 7036 ft 203 kts 200°
2026-05-07 20:30 33.24186 36.41585 7032 ft 203 kts 200°
2026-05-07 20:30 33.22876 36.40963 7025 ft 202 kts 200°
2026-05-07 20:31 33.21575 36.40346 7021 ft 200 kts 200°
2026-05-07 20:31 33.20446 36.39456 6950 ft 195 kts 232°
2026-05-07 20:31 33.20109 36.37918 6527 ft 198 kts 275°
2026-05-07 20:31 33.20638 36.36415 6031 ft 199 kts 311°
2026-05-07 20:32 33.21772 36.35532 5606 ft 195 kts 346°
2026-05-07 20:32 33.23075 36.35549 5300 ft 183 kts 14°
2026-05-07 20:32 33.24285 36.35927 5084 ft 177 kts 18°
2026-05-07 20:32 33.25464 36.36326 4861 ft 175 kts 19°
2026-05-07 20:33 33.26634 36.36715 4656 ft 173 kts 18°
2026-05-07 20:33 33.27793 36.37091 4629 ft 172 kts 18°
2026-05-07 20:33 33.28915 36.37460 4609 ft 163 kts 26°
2026-05-07 20:33 33.29860 36.38166 4521 ft 156 kts 41°
2026-05-07 20:34 33.30649 36.39052 4311 ft 155 kts 46°
2026-05-07 20:34 33.31376 36.39969 4130 ft 154 kts 48°
2026-05-07 20:34 33.32090 36.40920 3922 ft 153 kts 49°
2026-05-07 20:34 33.32793 36.41875 3729 ft 152 kts 49°
2026-05-07 20:35 33.33493 36.42828 3534 ft 152 kts 49°
2026-05-07 20:35 33.34193 36.43778 3327 ft 152 kts 49°
2026-05-07 20:35 33.34893 36.44730 3126 ft 156 kts 49°
2026-05-07 20:35 33.35639 36.45744 3041 ft 161 kts 49°
2026-05-07 20:36 33.36369 36.46735 2856 ft 159 kts 49°
2026-05-07 20:36 33.37123 36.47757 2506 ft 170 kts 49°
2026-05-07 20:36 33.37904 36.48822 2307 ft 172 kts 49°
2026-05-07 20:36 33.38708 36.49907 2059 ft 172 kts 48°
2026-05-07 20:37 33.39455 36.50896 2007 ft 144 kts 47°
2026-05-07 20:37 33.40011 36.51648 2006 ft 103 kts 47°
2026-05-07 20:37 33.40368 36.52121 2007 ft 49 kts 48°
2026-05-07 20:37 33.40471 36.52256 2004 ft 6 kts 47°
2026-05-07 20:38 33.40503 36.52299 2007 ft 8 kts 47°
2026-05-07 20:38 33.40555 36.52367 2006 ft 13 kts 47°
2026-05-07 20:38 33.40630 36.52433 2006 ft 15 kts 11°
2026-05-07 20:38 33.40706 36.52427 2007 ft 11 kts 338°
2026-05-07 20:39 33.40760 36.52389 2006 ft 0 kts 319°
2026-05-07 20:39 33.40767 36.52382 2004 ft 3 kts 319°
2026-05-07 20:39 33.40781 36.52368 2005 ft 3 kts 319°
2026-05-07 20:39 33.40792 36.52356 2007 ft 0 kts 319°
2026-05-07 20:40 33.40812 36.52336 2005 ft 9 kts 319°
2026-05-07 20:40 33.40869 36.52277 2005 ft 12 kts 319°
2026-05-07 20:40 33.40942 36.52202 2004 ft 15 kts 319°
2026-05-07 20:41 33.41030 36.52110 2006 ft 18 kts 319°
2026-05-07 20:41 33.41133 36.52001 2006 ft 21 kts 319°
2026-05-07 20:41 33.41173 36.51897 2005 ft 11 kts 280°
2026-05-07 20:41 33.41177 36.51793 2006 ft 14 kts 270°
2026-05-07 20:42 33.41181 36.51666 2008 ft 17 kts 273°
2026-05-07 20:42 33.41214 36.51549 2005 ft 10 kts 277°
2026-05-07 20:42 33.41207 36.51513 2006 ft 3 kts 255°
2026-05-07 20:42 33.41196 36.51487 2005 ft 4 kts 229°
2026-05-07 20:43 33.41179 36.51464 2004 ft 0 kts 228°
2026-05-07 20:43 33.41182 36.51467 2004 ft 3 kts 228°
2026-05-07 20:43 33.41184 36.51470 2004 ft 2 kts 229°
2026-05-07 20:44 33.41184 36.51471 2004 ft 0 kts 229°